| time (UTC) | temp F | wind direction | speed MPH | gust MPH | rain 1hr in | rain 24hr in | rain mn in | humidity % | barometer mb |
| 20260504184311 | 78 | 40 | 5.0 | 13.0 | 0.00 | 0.00 | 0.00 | 32 | 1005.3 |
| 20260504184238 | 78 | 55 | 5.0 | 13.0 | 0.00 | 0.00 | 0.00 | 32 | 1005.3 |
| 20260504184114 | 78 | 25 | 5.0 | 13.0 | 0.00 | 0.00 | 0.00 | 32 | 1005.3 |
| 20260504184014 | 78 | 21 | 6.0 | 15.0 | 0.00 | 0.00 | 0.00 | 32 | 1005.3 |
| 20260504183940 | 78 | 46 | 8.0 | 15.0 | 0.00 | 0.00 | 0.00 | 32 | 1005.4 |
| 20260504183815 | 78 | 36 | 8.0 | 15.0 | 0.00 | 0.00 | 0.00 | 32 | 1005.4 |
| 20260504183742 | 78 | 359 | 7.0 | 15.0 | 0.00 | 0.00 | 0.00 | 32 | 1005.4 |
| 20260504183629 | 78 | 19 | 6.0 | 15.0 | 0.00 | 0.00 | 0.00 | 32 | 1005.4 |
| 20260504183524 | 78 | 15 | 6.0 | 15.0 | 0.00 | 0.00 | 0.00 | 32 | 1005.3 |
| 20260504183422 | 78 | 10 | 7.0 | 15.0 | 0.00 | 0.00 | 0.00 | 33 | 1005.3 |
| 20260504183313 | 78 | 10 | 8.0 | 15.0 | 0.00 | 0.00 | 0.00 | 33 | 1005.4 |
| 20260504183229 | 78 | 24 | 8.0 | 15.0 | 0.00 | 0.00 | 0.00 | 33 | 1005.4 |
| 20260504183137 | 77 | 331 | 6.0 | 14.0 | 0.00 | 0.00 | 0.00 | 32 | 1005.4 |
| 20260504183011 | 77 | 15 | 4.0 | 15.0 | 0.00 | 0.00 | 0.00 | 33 | 1005.4 |
| 20260504182928 | 77 | 52 | 5.0 | 15.0 | 0.00 | 0.00 | 0.00 | 33 | 1005.4 |
| 20260504182813 | 77 | 54 | 7.0 | 15.0 | 0.00 | 0.00 | 0.00 | 33 | 1005.5 |
| 20260504182716 | 77 | 34 | 6.0 | 15.0 | 0.00 | 0.00 | 0.00 | 33 | 1005.5 |
| 20260504182612 | 77 | 355 | 8.0 | 15.0 | 0.00 | 0.00 | 0.00 | 32 | 1005.5 |
| 20260504182519 | 77 | 356 | 8.0 | 15.0 | 0.00 | 0.00 | 0.00 | 32 | 1005.5 |
| 20260504182415 | 77 | 5 | 6.0 | 15.0 | 0.00 | 0.00 | 0.00 | 32 | 1005.5 |
| 20260504182322 | 77 | 15 | 7.0 | 15.0 | 0.00 | 0.00 | 0.00 | 32 | 1005.5 |
| 20260504182216 | 77 | 10 | 8.0 | 15.0 | 0.00 | 0.00 | 0.00 | 32 | 1005.5 |
| 20260504182120 | 77 | 27 | 7.0 | 14.0 | 0.00 | 0.00 | 0.00 | 33 | 1005.5 |
| 20260504182020 | 77 | 73 | 7.0 | 14.0 | 0.00 | 0.00 | 0.00 | 33 | 1005.5 |
| 20260504181926 | 77 | 341 | 8.0 | 14.0 | 0.00 | 0.00 | 0.00 | 33 | 1005.5 |
| 20260504181824 | 77 | 10 | 8.0 | 14.0 | 0.00 | 0.00 | 0.00 | 33 | 1005.5 |
| 20260504181733 | 77 | 56 | 6.0 | 14.0 | 0.00 | 0.00 | 0.00 | 33 | 1005.5 |
| 20260504181647 | 77 | 356 | 7.0 | 14.0 | 0.00 | 0.00 | 0.00 | 33 | 1005.5 |
| 20260504181533 | 77 | 38 | 7.0 | 14.0 | 0.00 | 0.00 | 0.00 | 34 | 1005.5 |
| 20260504181430 | 77 | 41 | 6.0 | 14.0 | 0.00 | 0.00 | 0.00 | 34 | 1005.5 |
| 20260504181311 | 76 | 20 | 6.0 | 14.0 | 0.00 | 0.00 | 0.00 | 35 | 1005.5 |
| 20260504181218 | 76 | 15 | 6.0 | 14.0 | 0.00 | 0.00 | 0.00 | 35 | 1005.5 |
| 20260504181112 | 76 | 34 | 7.0 | 14.0 | 0.00 | 0.00 | 0.00 | 35 | 1005.5 |
| 20260504181010 | 76 | 48 | 7.0 | 14.0 | 0.00 | 0.00 | 0.00 | 35 | 1005.5 |
| 20260504180916 | 76 | 15 | 7.0 | 14.0 | 0.00 | 0.00 | 0.00 | 34 | 1005.5 |
| 20260504180814 | 76 | 5 | 6.0 | 14.0 | 0.00 | 0.00 | 0.00 | 35 | 1005.6 |
| 20260504180725 | 76 | 15 | 5.0 | 14.0 | 0.00 | 0.00 | 0.00 | 35 | 1005.5 |
| 20260504180621 | 76 | 19 | 6.0 | 14.0 | 0.00 | 0.00 | 0.00 | 35 | 1005.6 |
| 20260504180526 | 76 | 343 | 7.0 | 14.0 | 0.00 | 0.00 | 0.00 | 35 | 1005.5 |
| 20260504180424 | 76 | 360 | 6.0 | 14.0 | 0.00 | 0.00 | 0.00 | 35 | 1005.5 |
| 20260504180322 | 76 | 353 | 6.0 | 13.0 | 0.00 | 0.00 | 0.00 | 34 | 1005.5 |
| 20260504180228 | 76 | 329 | 6.0 | 13.0 | 0.00 | 0.00 | 0.00 | 35 | 1005.5 |
| 20260504180124 | 76 | 5 | 5.0 | 13.0 | 0.00 | 0.00 | 0.00 | 36 | 1005.5 |
| 20260504180034 | 76 | 54 | 6.0 | 13.0 | 0.00 | 0.00 | 0.00 | 36 | 1005.5 |
| 20260504175910 | 75 | 5 | 6.0 | 13.0 | 0.00 | 0.00 | 0.00 | 36 | 1005.6 |
| 20260504175828 | 75 | 26 | 7.0 | 13.0 | 0.00 | 0.00 | 0.00 | 36 | 1005.6 |
| 20260504175736 | 75 | 27 | 8.0 | 13.0 | 0.00 | 0.00 | 0.00 | 36 | 1005.6 |
| 20260504175611 | 75 | 342 | 9.0 | 13.0 | 0.00 | 0.00 | 0.00 | 36 | 1005.6 |
| 20260504175516 | 75 | 29 | 9.0 | 13.0 | 0.00 | 0.00 | 0.00 | 36 | 1005.6 |
| 20260504175414 | 75 | 15 | 10.0 | 13.0 | 0.00 | 0.00 | 0.00 | 36 | 1005.6 |
| 20260504175345 | 75 | 33 | 10.0 | 17.0 | 0.00 | 0.00 | 0.00 | 36 | 1005.6 |
| 20260504175231 | 75 | 15 | 8.0 | 17.0 | 0.00 | 0.00 | 0.00 | 35 | 1005.6 |
| 20260504175130 | 75 | 36 | 8.0 | 17.0 | 0.00 | 0.00 | 0.00 | 35 | 1005.6 |
| 20260504175014 | 75 | 27 | 7.0 | 17.0 | 0.00 | 0.00 | 0.00 | 36 | 1005.6 |
| 20260504174939 | 75 | 10 | 6.0 | 17.0 | 0.00 | 0.00 | 0.00 | 36 | 1005.6 |
| 20260504174816 | 75 | 15 | 6.0 | 17.0 | 0.00 | 0.00 | 0.00 | 35 | 1005.7 |
| 20260504174735 | 75 | 47 | 8.0 | 17.0 | 0.00 | 0.00 | 0.00 | 36 | 1005.7 |
| 20260504174619 | 75 | 52 | 8.0 | 17.0 | 0.00 | 0.00 | 0.00 | 36 | 1005.6 |
| 20260504174522 | 75 | 35 | 8.0 | 17.0 | 0.00 | 0.00 | 0.00 | 36 | 1005.6 |
| 20260504174428 | 75 | 44 | 8.0 | 13.0 | 0.00 | 0.00 | 0.00 | 36 | 1005.6 |
| 20260504174325 | 75 | 23 | 7.0 | 13.0 | 0.00 | 0.00 | 0.00 | 36 | 1005.6 |
| 20260504174231 | 75 | 36 | 5.0 | 12.0 | 0.00 | 0.00 | 0.00 | 36 | 1005.6 |
| 20260504174130 | 75 | 5 | 6.0 | 12.0 | 0.00 | 0.00 | 0.00 | 36 | 1005.6 |
| 20260504174025 | 75 | 36 | 6.0 | 12.0 | 0.00 | 0.00 | 0.00 | 36 | 1005.7 |
| 20260504173936 | 75 | 5 | 6.0 | 12.0 | 0.00 | 0.00 | 0.00 | 36 | 1005.7 |
| 20260504173833 | 75 | 23 | 5.0 | 12.0 | 0.00 | 0.00 | 0.00 | 36 | 1005.6 |
| 20260504173720 | 75 | 34 | 4.0 | 12.0 | 0.00 | 0.00 | 0.00 | 35 | 1005.6 |
| 20260504173617 | 76 | 10 | 4.0 | 12.0 | 0.00 | 0.00 | 0.00 | 36 | 1005.6 |
| 20260504173513 | 76 | 15 | 6.0 | 12.0 | 0.00 | 0.00 | 0.00 | 36 | 1005.6 |
| 20260504173418 | 75 | 30 | 5.0 | 12.0 | 0.00 | 0.00 | 0.00 | 36 | 1005.6 |
| 20260504173344 | 75 | 56 | 5.0 | 12.0 | 0.00 | 0.00 | 0.00 | 36 | 1005.7 |
| 20260504173225 | 75 | 15 | 6.0 | 11.0 | 0.00 | 0.00 | 0.00 | 37 | 1005.6 |
| 20260504173121 | 75 | 10 | 5.0 | 11.0 | 0.00 | 0.00 | 0.00 | 36 | 1005.6 |
| 20260504173027 | 75 | 43 | 4.0 | 11.0 | 0.00 | 0.00 | 0.00 | 36 | 1005.6 |
| 20260504172924 | 75 | 30 | 4.0 | 11.0 | 0.00 | 0.00 | 0.00 | 36 | 1005.7 |
| 20260504172831 | 75 | 32 | 6.0 | 11.0 | 0.00 | 0.00 | 0.00 | 36 | 1005.7 |
| 20260504172749 | 75 | 67 | 6.0 | 11.0 | 0.00 | 0.00 | 0.00 | 36 | 1005.6 |
| 20260504172635 | 75 | 62 | 4.0 | 11.0 | 0.00 | 0.00 | 0.00 | 36 | 1005.6 |
| 20260504172515 | 75 | 40 | 2.0 | 8.0 | 0.00 | 0.00 | 0.00 | 36 | 1005.7 |
| 20260504172413 | 75 | 40 | 2.0 | 8.0 | 0.00 | 0.00 | 0.00 | 36 | 1005.6 |
| 20260504172320 | 75 | 27 | 3.0 | 8.0 | 0.00 | 0.00 | 0.00 | 36 | 1005.6 |
| 20260504172219 | 75 | 15 | 4.0 | 8.0 | 0.00 | 0.00 | 0.00 | 36 | 1005.6 |
| 20260504172124 | 75 | 82 | 3.0 | 8.0 | 0.00 | 0.00 | 0.00 | 36 | 1005.6 |
| 20260504172019 | 74 | 32 | 2.0 | 8.0 | 0.00 | 0.00 | 0.00 | 37 | 1005.7 |
| 20260504171920 | 74 | 61 | 3.0 | 8.0 | 0.00 | 0.00 | 0.00 | 36 | 1005.6 |
| 20260504171827 | 74 | 10 | 4.0 | 8.0 | 0.00 | 0.00 | 0.00 | 36 | 1005.6 |
| 20260504171726 | 74 | 42 | 4.0 | 8.0 | 0.00 | 0.00 | 0.00 | 36 | 1005.7 |
| 20260504171631 | 74 | 37 | 2.0 | 7.0 | 0.00 | 0.00 | 0.00 | 36 | 1005.7 |
| 20260504171527 | 74 | 37 | 2.0 | 7.0 | 0.00 | 0.00 | 0.00 | 36 | 1005.7 |
| 20260504171432 | 74 | 37 | 3.0 | 7.0 | 0.00 | 0.00 | 0.00 | 37 | 1005.7 |
| 20260504171338 | 74 | 37 | 3.0 | 7.0 | 0.00 | 0.00 | 0.00 | 37 | 1005.7 |
| 20260504171222 | 73 | 27 | 3.0 | 7.0 | 0.00 | 0.00 | 0.00 | 37 | 1005.7 |
| 20260504171116 | 73 | 98 | 2.0 | 7.0 | 0.00 | 0.00 | 0.00 | 37 | 1005.7 |
| 20260504171023 | 73 | 61 | 2.0 | 7.0 | 0.00 | 0.00 | 0.00 | 38 | 1005.7 |
| 20260504170940 | 73 | 79 | 4.0 | 7.0 | 0.00 | 0.00 | 0.00 | 37 | 1005.7 |
| 20260504170823 | 73 | 67 | 3.0 | 7.0 | 0.00 | 0.00 | 0.00 | 37 | 1005.7 |
| 20260504170721 | 73 | 112 | 2.0 | 7.0 | 0.00 | 0.00 | 0.00 | 37 | 1005.7 |
| 20260504170624 | 72 | 158 | 1.0 | 6.0 | 0.00 | 0.00 | 0.00 | 36 | 1005.7 |
| 20260504170549 | 72 | 158 | 2.0 | 6.0 | 0.00 | 0.00 | 0.00 | 37 | 1005.7 |
| 20260504170445 | 72 | 158 | 3.0 | 6.0 | 0.00 | 0.00 | 0.00 | 36 | 1005.7 |
| 20260504170316 | 72 | 158 | 3.0 | 7.0 | 0.00 | 0.00 | 0.00 | 35 | 1005.8 |
| 20260504170212 | 72 | 159 | 2.0 | 7.0 | 0.00 | 0.00 | 0.00 | 36 | 1005.8 |
| 20260504170139 | 72 | 159 | 2.0 | 7.0 | 0.00 | 0.00 | 0.00 | 36 | 1005.8 |
| 20260504160426 | 65 | 228 | 3.0 | 6.0 | 0.00 | 0.00 | 0.00 | 45 | 1005.7 |
| 20260504160327 | 64 | 228 | 2.0 | 6.0 | 0.00 | 0.00 | 0.00 | 46 | 1005.7 |
| 20260504160234 | 64 | 228 | 2.0 | 6.0 | 0.00 | 0.00 | 0.00 | 48 | 1005.8 |
| 20260504160147 | 64 | 228 | 3.0 | 6.0 | 0.00 | 0.00 | 0.00 | 46 | 1005.7 |
| 20260504151138 | 54 | 207 | 2.0 | 4.0 | 0.00 | 0.00 | 0.00 | 62 | 1005.8 |
| 20260504151024 | 54 | 207 | 2.0 | 4.0 | 0.00 | 0.00 | 0.00 | 62 | 1005.8 |
| 20260504150922 | 54 | 207 | 2.0 | 4.0 | 0.00 | 0.00 | 0.00 | 63 | 1005.8 |
| 20260504150826 | 54 | 206 | 2.0 | 4.0 | 0.00 | 0.00 | 0.00 | 63 | 1005.8 |
| 20260504150723 | 53 | 206 | 2.0 | 4.0 | 0.00 | 0.00 | 0.00 | 63 | 1005.8 |
| 20260504150631 | 53 | 206 | 2.0 | 4.0 | 0.00 | 0.00 | 0.00 | 64 | 1005.8 |
| 20260504150510 | 53 | 206 | 2.0 | 4.0 | 0.00 | 0.00 | 0.00 | 64 | 1005.9 |
| 20260504150437 | 53 | 206 | 3.0 | 4.0 | 0.00 | 0.00 | 0.00 | 64 | 1005.9 |
| 20260504150315 | 52 | 206 | 3.0 | 4.0 | 0.00 | 0.00 | 0.00 | 65 | 1005.9 |
| 20260504150234 | 52 | 206 | 2.0 | 4.0 | 0.00 | 0.00 | 0.00 | 65 | 1005.9 |
| 20260504150116 | 52 | 190 | 2.0 | 4.0 | 0.00 | 0.00 | 0.00 | 65 | 1005.9 |
| 20260504141315 | 47 | 193 | 2.0 | 6.0 | 0.00 | 0.00 | 0.00 | 69 | 1006.0 |
| 20260504141244 | 47 | 193 | 2.0 | 6.0 | 0.00 | 0.00 | 0.00 | 69 | 1005.9 |
| 20260504141126 | 47 | 194 | 2.0 | 6.0 | 0.00 | 0.00 | 0.00 | 69 | 1005.9 |
| 20260504141023 | 47 | 195 | 2.0 | 6.0 | 0.00 | 0.00 | 0.00 | 69 | 1005.9 |
| 20260504140919 | 47 | 200 | 1.0 | 3.0 | 0.00 | 0.00 | 0.00 | 69 | 1005.9 |
| 20260504140825 | 47 | 200 | 2.0 | 3.0 | 0.00 | 0.00 | 0.00 | 69 | 1005.9 |
| 20260504140722 | 47 | 200 | 1.0 | 3.0 | 0.00 | 0.00 | 0.00 | 69 | 1005.9 |
| 20260504140635 | 47 | 200 | 0.0 | 2.0 | 0.00 | 0.00 | 0.00 | 69 | 1005.9 |
| 20260504140510 | 47 | 200 | 0.0 | 3.0 | 0.00 | 0.00 | 0.00 | 69 | 1005.9 |
| 20260504140428 | 47 | 200 | 0.0 | 3.0 | 0.00 | 0.00 | 0.00 | 69 | 1005.9 |
| 20260504140315 | 47 | 200 | 0.0 | 3.0 | 0.00 | 0.00 | 0.00 | 68 | 1005.9 |
| 20260504140212 | 47 | 200 | 0.0 | 3.0 | 0.00 | 0.00 | 0.00 | 68 | 1005.9 |
| 20260504140138 | 47 | 200 | 0.0 | 3.0 | 0.00 | 0.00 | 0.00 | 68 | 1005.9 |
| 20260504130813 | 47 | 177 | 0.0 | 2.0 | 0.00 | 0.00 | 0.00 | 66 | 1005.6 |
| 20260504130721 | 47 | 177 | 0.0 | 2.0 | 0.00 | 0.00 | 0.00 | 66 | 1005.6 |
| 20260504130617 | 47 | 177 | 0.0 | 3.0 | 0.00 | 0.00 | 0.00 | 66 | 1005.6 |
| 20260504130542 | 47 | 177 | 0.0 | 3.0 | 0.00 | 0.00 | 0.00 | 66 | 1005.6 |
| 20260504130421 | 47 | 177 | 0.0 | 3.0 | 0.00 | 0.00 | 0.00 | 66 | 1005.6 |
| 20260504130328 | 47 | 177 | 0.0 | 3.0 | 0.00 | 0.00 | 0.00 | 66 | 1005.6 |
| 20260504130223 | 47 | 177 | 1.0 | 3.0 | 0.00 | 0.00 | 0.00 | 66 | 1005.6 |
| 20260504130131 | 47 | 178 | 1.0 | 3.0 | 0.00 | 0.00 | 0.00 | 66 | 1005.6 |
| 20260504120309 | 49 | 156 | 1.0 | 5.0 | 0.00 | 0.00 | 0.00 | 63 | 1005.4 |
| 20260504120218 | 49 | 156 | 1.0 | 4.0 | 0.00 | 0.00 | 0.00 | 63 | 1005.4 |
| 20260504120113 | 49 | 154 | 3.0 | 4.0 | 0.00 | 0.00 | 0.00 | 63 | 1005.4 |
| 20260504110624 | 51 | 149 | 1.0 | 5.0 | 0.00 | 0.00 | 0.00 | 60 | 1005.5 |
| 20260504110519 | 51 | 149 | 1.0 | 5.0 | 0.00 | 0.00 | 0.00 | 60 | 1005.4 |
| 20260504110424 | 51 | 149 | 2.0 | 5.0 | 0.00 | 0.00 | 0.00 | 60 | 1005.4 |
| 20260504110321 | 51 | 149 | 2.0 | 5.0 | 0.00 | 0.00 | 0.00 | 60 | 1005.4 |
| 20260504110230 | 51 | 149 | 3.0 | 5.0 | 0.00 | 0.00 | 0.00 | 60 | 1005.4 |
| 20260504110130 | 51 | 149 | 3.0 | 5.0 | 0.00 | 0.00 | 0.00 | 60 | 1005.4 |
| 20260504100533 | 53 | 159 | 0.0 | 3.0 | 0.00 | 0.00 | 0.00 | 57 | 1005.6 |
| 20260504100414 | 53 | 159 | 0.0 | 3.0 | 0.00 | 0.00 | 0.00 | 57 | 1005.6 |
| 20260504100311 | 53 | 159 | 0.0 | 3.0 | 0.00 | 0.00 | 0.00 | 57 | 1005.6 |
| 20260504100219 | 53 | 159 | 1.0 | 3.0 | 0.00 | 0.00 | 0.00 | 57 | 1005.6 |
| 20260504100113 | 53 | 159 | 1.0 | 3.0 | 0.00 | 0.00 | 0.00 | 57 | 1005.6 |
| 20260504090115 | 56 | 19 | 0.0 | 0.0 | 0.00 | 0.00 | 0.00 | 50 | 1005.6 |
| 20260504081931 | 60 | 19 | 0.0 | 0.0 | 0.00 | 0.00 | 0.00 | 45 | 1005.7 |
| 20260504081812 | 60 | 19 | 0.0 | 0.0 | 0.00 | 0.00 | 0.00 | 45 | 1005.7 |
| 20260504081719 | 60 | 19 | 0.0 | 0.0 | 0.00 | 0.00 | 0.00 | 45 | 1005.7 |
| 20260504081615 | 60 | 19 | 0.0 | 0.0 | 0.00 | 0.00 | 0.00 | 45 | 1005.7 |
| 20260504081510 | 60 | 19 | 0.0 | 0.0 | 0.00 | 0.00 | 0.00 | 45 | 1005.7 |
| 20260504081415 | 60 | 19 | 0.0 | 0.0 | 0.00 | 0.00 | 0.00 | 45 | 1005.7 |
| 20260504081312 | 60 | 19 | 0.0 | 0.0 | 0.00 | 0.00 | 0.00 | 45 | 1005.7 |
| 20260504081220 | 60 | 19 | 0.0 | 0.0 | 0.00 | 0.00 | 0.00 | 45 | 1005.8 |
| 20260504081119 | 60 | 19 | 0.0 | 1.0 | 0.00 | 0.00 | 0.00 | 45 | 1005.8 |
| 20260504081025 | 60 | 19 | 0.0 | 1.0 | 0.00 | 0.00 | 0.00 | 45 | 1005.7 |
| 20260504080940 | 60 | 19 | 0.0 | 2.0 | 0.00 | 0.00 | 0.00 | 44 | 1005.7 |
| 20260504080826 | 60 | 19 | 0.0 | 2.0 | 0.00 | 0.00 | 0.00 | 44 | 1005.7 |
| 20260504080722 | 60 | 19 | 0.0 | 2.0 | 0.00 | 0.00 | 0.00 | 44 | 1005.8 |
| 20260504080632 | 61 | 19 | 0.0 | 2.0 | 0.00 | 0.00 | 0.00 | 44 | 1005.8 |
| 20260504080526 | 61 | 19 | 0.0 | 2.0 | 0.00 | 0.00 | 0.00 | 44 | 1005.7 |
| 20260504080426 | 61 | 19 | 0.0 | 2.0 | 0.00 | 0.00 | 0.00 | 44 | 1005.8 |
| 20260504080332 | 61 | 19 | 0.0 | 2.0 | 0.00 | 0.00 | 0.00 | 44 | 1005.8 |
| 20260504080211 | 61 | 19 | 0.0 | 2.0 | 0.00 | 0.00 | 0.00 | 44 | 1005.7 |
| 20260504080115 | 61 | 19 | 1.0 | 2.0 | 0.00 | 0.00 | 0.00 | 44 | 1005.8 |
| 20260504070411 | 63 | 19 | 0.0 | 0.0 | 0.00 | 0.00 | 0.00 | 41 | 1005.7 |
| 20260504070338 | 63 | 19 | 0.0 | 0.0 | 0.00 | 0.00 | 0.00 | 41 | 1005.7 |
| 20260504070216 | 63 | 19 | 0.0 | 0.0 | 0.00 | 0.00 | 0.00 | 41 | 1005.8 |
| 20260504070111 | 63 | 19 | 0.0 | 0.0 | 0.00 | 0.00 | 0.00 | 41 | 1005.7 |
| 20260504060126 | 65 | 22 | 2.0 | 4.0 | 0.00 | 0.00 | 0.00 | 39 | 1005.6 |
| 20260504050721 | 66 | 30 | 3.0 | 6.0 | 0.00 | 0.00 | 0.00 | 39 | 1005.5 |
| 20260504050632 | 66 | 30 | 3.0 | 6.0 | 0.00 | 0.00 | 0.00 | 39 | 1005.5 |
| 20260504050556 | 66 | 30 | 3.0 | 6.0 | 0.00 | 0.00 | 0.00 | 39 | 1005.5 |
| 20260504050412 | 66 | 31 | 3.0 | 6.0 | 0.00 | 0.00 | 0.00 | 38 | 1005.5 |
| 20260504050310 | 66 | 30 | 3.0 | 6.0 | 0.00 | 0.00 | 0.00 | 39 | 1005.5 |
| 20260504050238 | 66 | 29 | 4.0 | 6.0 | 0.00 | 0.00 | 0.00 | 38 | 1005.5 |
| 20260504050113 | 66 | 29 | 4.0 | 7.0 | 0.00 | 0.00 | 0.00 | 38 | 1005.4 |
| 20260504050010 | 66 | 31 | 4.0 | 6.0 | 0.00 | 0.00 | 0.00 | 38 | 1005.4 |
| 20260504045918 | 66 | 20 | 4.0 | 6.0 | 0.00 | 0.00 | 0.00 | 38 | 1005.5 |
| 20260504045844 | 66 | 15 | 4.0 | 6.0 | 0.00 | 0.00 | 0.00 | 38 | 1005.4 |
| 20260504045722 | 66 | 10 | 4.0 | 6.0 | 0.00 | 0.00 | 0.00 | 38 | 1005.4 |
| 20260504045626 | 66 | 23 | 4.0 | 6.0 | 0.00 | 0.00 | 0.00 | 38 | 1005.4 |
| 20260504045542 | 66 | 27 | 4.0 | 7.0 | 0.00 | 0.00 | 0.00 | 38 | 1005.4 |
| 20260504045426 | 66 | 352 | 4.0 | 6.0 | 0.00 | 0.00 | 0.00 | 38 | 1005.4 |
| 20260504045322 | 66 | 15 | 4.0 | 7.0 | 0.00 | 0.00 | 0.00 | 38 | 1005.4 |
| 20260504045228 | 66 | 15 | 4.0 | 6.0 | 0.00 | 0.00 | 0.00 | 38 | 1005.4 |
| 20260504045130 | 66 | 10 | 4.0 | 7.0 | 0.00 | 0.00 | 0.00 | 38 | 1005.3 |
| 20260504045025 | 67 | 15 | 4.0 | 6.0 | 0.00 | 0.00 | 0.00 | 38 | 1005.3 |
| 20260504044931 | 67 | 15 | 4.0 | 6.0 | 0.00 | 0.00 | 0.00 | 38 | 1005.3 |
| 20260504044828 | 67 | 19 | 4.0 | 6.0 | 0.00 | 0.00 | 0.00 | 38 | 1005.3 |
| 20260504044733 | 67 | 10 | 4.0 | 6.0 | 0.00 | 0.00 | 0.00 | 38 | 1005.4 |
| 20260504044629 | 67 | 10 | 4.0 | 6.0 | 0.00 | 0.00 | 0.00 | 38 | 1005.4 |
| 20260504044516 | 67 | 23 | 4.0 | 6.0 | 0.00 | 0.00 | 0.00 | 38 | 1005.4 |
| 20260504044414 | 67 | 19 | 4.0 | 5.0 | 0.00 | 0.00 | 0.00 | 38 | 1005.3 |
| 20260504044341 | 67 | 19 | 4.0 | 5.0 | 0.00 | 0.00 | 0.00 | 38 | 1005.3 |
| 20260504044218 | 67 | 21 | 3.0 | 5.0 | 0.00 | 0.00 | 0.00 | 37 | 1005.3 |
| 20260504044122 | 67 | 23 | 3.0 | 6.0 | 0.00 | 0.00 | 0.00 | 37 | 1005.3 |
| 20260504044020 | 67 | 22 | 3.0 | 6.0 | 0.00 | 0.00 | 0.00 | 37 | 1005.4 |
| 20260504043917 | 67 | 30 | 3.0 | 6.0 | 0.00 | 0.00 | 0.00 | 37 | 1005.3 |
| 20260504043827 | 67 | 29 | 3.0 | 6.0 | 0.00 | 0.00 | 0.00 | 37 | 1005.3 |
| 20260504043723 | 68 | 29 | 3.0 | 6.0 | 0.00 | 0.00 | 0.00 | 37 | 1005.3 |
| 20260504043632 | 68 | 28 | 3.0 | 6.0 | 0.00 | 0.00 | 0.00 | 37 | 1005.3 |
| 20260504043525 | 68 | 27 | 3.0 | 6.0 | 0.00 | 0.00 | 0.00 | 37 | 1005.3 |
| 20260504043422 | 68 | 40 | 4.0 | 6.0 | 0.00 | 0.00 | 0.00 | 37 | 1005.3 |
| 20260504043328 | 68 | 21 | 4.0 | 6.0 | 0.00 | 0.00 | 0.00 | 37 | 1005.3 |
| 20260504043209 | 68 | 38 | 4.0 | 5.0 | 0.00 | 0.00 | 0.00 | 37 | 1005.3 |
| 20260504043136 | 68 | 38 | 4.0 | 5.0 | 0.00 | 0.00 | 0.00 | 36 | 1005.3 |
| 20260504043009 | 68 | 36 | 3.0 | 5.0 | 0.00 | 0.00 | 0.00 | 36 | 1005.3 |
| 20260504042915 | 68 | 40 | 3.0 | 4.0 | 0.00 | 0.00 | 0.00 | 36 | 1005.3 |
| 20260504042813 | 69 | 42 | 3.0 | 4.0 | 0.00 | 0.00 | 0.00 | 36 | 1005.3 |
| 20260504042712 | 69 | 42 | 3.0 | 4.0 | 0.00 | 0.00 | 0.00 | 36 | 1005.3 |
| 20260504042617 | 69 | 42 | 3.0 | 4.0 | 0.00 | 0.00 | 0.00 | 36 | 1005.3 |
| 20260504042518 | 69 | 42 | 3.0 | 4.0 | 0.00 | 0.00 | 0.00 | 36 | 1005.3 |
| 20260504042425 | 69 | 42 | 3.0 | 5.0 | 0.00 | 0.00 | 0.00 | 36 | 1005.2 |
| 20260504042322 | 69 | 43 | 3.0 | 5.0 | 0.00 | 0.00 | 0.00 | 35 | 1005.2 |
| 20260504042220 | 69 | 44 | 2.0 | 5.0 | 0.00 | 0.00 | 0.00 | 35 | 1005.2 |
| 20260504042129 | 69 | 46 | 2.0 | 5.0 | 0.00 | 0.00 | 0.00 | 35 | 1005.2 |
| 20260504042023 | 69 | 46 | 2.0 | 5.0 | 0.00 | 0.00 | 0.00 | 35 | 1005.2 |
| 20260504041930 | 69 | 46 | 3.0 | 5.0 | 0.00 | 0.00 | 0.00 | 35 | 1005.2 |
| 20260504041827 | 70 | 45 | 3.0 | 5.0 | 0.00 | 0.00 | 0.00 | 35 | 1005.2 |
| 20260504041735 | 70 | 44 | 3.0 | 5.0 | 0.00 | 0.00 | 0.00 | 35 | 1005.2 |
| 20260504041609 | 70 | 42 | 3.0 | 5.0 | 0.00 | 0.00 | 0.00 | 35 | 1005.2 |
| 20260504041528 | 70 | 42 | 3.0 | 5.0 | 0.00 | 0.00 | 0.00 | 35 | 1005.2 |
| 20260504041434 | 70 | 42 | 3.0 | 5.0 | 0.00 | 0.00 | 0.00 | 35 | 1005.2 |
| 20260504041311 | 70 | 44 | 3.0 | 5.0 | 0.00 | 0.00 | 0.00 | 35 | 1005.2 |
| 20260504041241 | 70 | 51 | 3.0 | 5.0 | 0.00 | 0.00 | 0.00 | 34 | 1005.2 |
| 20260504041134 | 70 | 52 | 3.0 | 5.0 | 0.00 | 0.00 | 0.00 | 34 | 1005.1 |
| 20260504041020 | 70 | 50 | 3.0 | 5.0 | 0.00 | 0.00 | 0.00 | 34 | 1005.2 |
| 20260504040917 | 70 | 50 | 3.0 | 5.0 | 0.00 | 0.00 | 0.00 | 34 | 1005.2 |
| 20260504040824 | 70 | 48 | 3.0 | 5.0 | 0.00 | 0.00 | 0.00 | 34 | 1005.1 |
| 20260504040723 | 70 | 49 | 3.0 | 6.0 | 0.00 | 0.00 | 0.00 | 34 | 1005.1 |
| 20260504040619 | 71 | 52 | 3.0 | 6.0 | 0.00 | 0.00 | 0.00 | 34 | 1005.1 |
| 20260504040545 | 71 | 56 | 3.0 | 6.0 | 0.00 | 0.00 | 0.00 | 34 | 1005.0 |
| 20260504040434 | 71 | 56 | 3.0 | 6.0 | 0.00 | 0.00 | 0.00 | 33 | 1005.0 |
| 20260504040311 | 71 | 44 | 3.0 | 6.0 | 0.00 | 0.00 | 0.00 | 33 | 1005.0 |
| 20260504040211 | 71 | 52 | 3.0 | 6.0 | 0.00 | 0.00 | 0.00 | 33 | 1005.0 |
| 20260504040115 | 71 | 61 | 3.0 | 6.0 | 0.00 | 0.00 | 0.00 | 33 | 1005.0 |
| 20260504040011 | 71 | 56 | 3.0 | 6.0 | 0.00 | 0.00 | 0.00 | 33 | 1005.0 |
| 20260504035916 | 71 | 57 | 3.0 | 6.0 | 0.00 | 0.00 | 0.00 | 33 | 1005.0 |
| 20260504035816 | 71 | 45 | 2.0 | 6.0 | 0.00 | 0.00 | 0.00 | 33 | 1004.9 |
| 20260504035724 | 71 | 38 | 3.0 | 6.0 | 0.00 | 0.00 | 0.00 | 32 | 1004.9 |
| 20260504035619 | 71 | 37 | 3.0 | 6.0 | 0.00 | 0.00 | 0.00 | 32 | 1004.9 |
| 20260504035517 | 71 | 51 | 2.0 | 6.0 | 0.00 | 0.00 | 0.00 | 32 | 1005.0 |
| 20260504035423 | 71 | 58 | 2.0 | 6.0 | 0.00 | 0.00 | 0.00 | 32 | 1004.9 |
| 20260504035320 | 71 | 40 | 3.0 | 6.0 | 0.00 | 0.00 | 0.00 | 32 | 1004.9 |
| 20260504035226 | 71 | 40 | 2.0 | 6.0 | 0.00 | 0.00 | 0.00 | 32 | 1005.0 |
| 20260504035125 | 72 | 40 | 3.0 | 6.0 | 0.00 | 0.00 | 0.00 | 32 | 1004.9 |
| 20260504035031 | 72 | 30 | 3.0 | 8.0 | 0.00 | 0.00 | 0.00 | 32 | 1004.9 |
| 20260504034925 | 72 | 29 | 3.0 | 8.0 | 0.00 | 0.00 | 0.00 | 31 | 1004.9 |
| 20260504034832 | 72 | 23 | 3.0 | 8.0 | 0.00 | 0.00 | 0.00 | 31 | 1004.9 |
| 20260504034749 | 72 | 22 | 3.0 | 8.0 | 0.00 | 0.00 | 0.00 | 31 | 1004.9 |
| 20260504034636 | 72 | 46 | 3.0 | 8.0 | 0.00 | 0.00 | 0.00 | 31 | 1004.9 |
| 20260504034511 | 72 | 40 | 3.0 | 9.0 | 0.00 | 0.00 | 0.00 | 31 | 1004.9 |
| 20260504034411 | 72 | 15 | 4.0 | 9.0 | 0.00 | 0.00 | 0.00 | 31 | 1004.9 |
| 20260504034317 | 72 | 22 | 4.0 | 10.0 | 0.00 | 0.00 | 0.00 | 31 | 1004.8 |
| 20260504034245 | 72 | 37 | 5.0 | 10.0 | 0.00 | 0.00 | 0.00 | 31 | 1004.8 |
| 20260504034118 | 72 | 10 | 5.0 | 10.0 | 0.00 | 0.00 | 0.00 | 31 | 1004.8 |
| 20260504034013 | 72 | 31 | 5.0 | 10.0 | 0.00 | 0.00 | 0.00 | 31 | 1004.8 |
| 20260504033917 | 72 | 21 | 5.0 | 10.0 | 0.00 | 0.00 | 0.00 | 30 | 1004.8 |
| 20260504033824 | 72 | 33 | 6.0 | 10.0 | 0.00 | 0.00 | 0.00 | 30 | 1004.8 |
| 20260504033739 | 72 | 15 | 5.0 | 10.0 | 0.00 | 0.00 | 0.00 | 30 | 1004.7 |
| 20260504033631 | 72 | 21 | 5.0 | 10.0 | 0.00 | 0.00 | 0.00 | 30 | 1004.7 |
| 20260504033527 | 72 | 25 | 6.0 | 11.0 | 0.00 | 0.00 | 0.00 | 30 | 1004.7 |
| 20260504033433 | 72 | 15 | 6.0 | 11.0 | 0.00 | 0.00 | 0.00 | 30 | 1004.7 |
| 20260504033310 | 73 | 21 | 5.0 | 11.0 | 0.00 | 0.00 | 0.00 | 30 | 1004.7 |
| 20260504033228 | 73 | 15 | 5.0 | 11.0 | 0.00 | 0.00 | 0.00 | 30 | 1004.7 |
| 20260504033135 | 73 | 25 | 5.0 | 11.0 | 0.00 | 0.00 | 0.00 | 30 | 1004.7 |
| 20260504033014 | 73 | 72 | 6.0 | 11.0 | 0.00 | 0.00 | 0.00 | 30 | 1004.7 |
| 20260504032912 | 73 | 35 | 5.0 | 11.0 | 0.00 | 0.00 | 0.00 | 30 | 1004.7 |
| 20260504032818 | 73 | 34 | 6.0 | 11.0 | 0.00 | 0.00 | 0.00 | 30 | 1004.7 |
| 20260504032716 | 73 | 32 | 6.0 | 11.0 | 0.00 | 0.00 | 0.00 | 30 | 1004.7 |
| 20260504032612 | 73 | 10 | 6.0 | 10.0 | 0.00 | 0.00 | 0.00 | 30 | 1004.7 |
| 20260504032519 | 73 | 22 | 5.0 | 10.0 | 0.00 | 0.00 | 0.00 | 30 | 1004.7 |
| 20260504032446 | 73 | 25 | 5.0 | 10.0 | 0.00 | 0.00 | 0.00 | 30 | 1004.7 |
| 20260504032324 | 73 | 20 | 4.0 | 12.0 | 0.00 | 0.00 | 0.00 | 30 | 1004.7 |
| 20260504032233 | 73 | 10 | 5.0 | 12.0 | 0.00 | 0.00 | 0.00 | 30 | 1004.7 |
| 20260504032147 | 73 | 21 | 4.0 | 12.0 | 0.00 | 0.00 | 0.00 | 30 | 1004.6 |
| 20260504032032 | 73 | 10 | 4.0 | 12.0 | 0.00 | 0.00 | 0.00 | 30 | 1004.6 |
| 20260504031909 | 73 | 24 | 6.0 | 12.0 | 0.00 | 0.00 | 0.00 | 30 | 1004.6 |
| 20260504031825 | 73 | 25 | 6.0 | 12.0 | 0.00 | 0.00 | 0.00 | 30 | 1004.6 |
| 20260504031717 | 74 | 357 | 6.0 | 12.0 | 0.00 | 0.00 | 0.00 | 29 | 1004.6 |
| 20260504031612 | 74 | 15 | 6.0 | 12.0 | 0.00 | 0.00 | 0.00 | 30 | 1004.6 |
| 20260504031511 | 74 | 15 | 5.0 | 12.0 | 0.00 | 0.00 | 0.00 | 29 | 1004.6 |
| 20260504031418 | 74 | 31 | 6.0 | 12.0 | 0.00 | 0.00 | 0.00 | 29 | 1004.6 |
| 20260504031314 | 74 | 15 | 7.0 | 12.0 | 0.00 | 0.00 | 0.00 | 29 | 1004.6 |
| 20260504031242 | 74 | 15 | 8.0 | 12.0 | 0.00 | 0.00 | 0.00 | 29 | 1004.6 |
| 20260504031114 | 74 | 357 | 7.0 | 12.0 | 0.00 | 0.00 | 0.00 | 29 | 1004.6 |
| 20260504031025 | 74 | 5 | 6.0 | 12.0 | 0.00 | 0.00 | 0.00 | 29 | 1004.6 |
| 20260504030920 | 74 | 48 | 6.0 | 16.0 | 0.00 | 0.00 | 0.00 | 29 | 1004.5 |
| 20260504030826 | 74 | 15 | 5.0 | 16.0 | 0.00 | 0.00 | 0.00 | 29 | 1004.6 |
| 20260504030723 | 74 | 15 | 5.0 | 16.0 | 0.00 | 0.00 | 0.00 | 29 | 1004.6 |
| 20260504030631 | 74 | 10 | 6.0 | 16.0 | 0.00 | 0.00 | 0.00 | 29 | 1004.6 |
| 20260504030526 | 74 | 25 | 8.0 | 16.0 | 0.00 | 0.00 | 0.00 | 29 | 1004.6 |
| 20260504030424 | 75 | 38 | 7.0 | 16.0 | 0.00 | 0.00 | 0.00 | 28 | 1004.5 |
| 20260504030335 | 75 | 359 | 6.0 | 16.0 | 0.00 | 0.00 | 0.00 | 29 | 1004.5 |
| 20260504030233 | 75 | 10 | 7.0 | 16.0 | 0.00 | 0.00 | 0.00 | 28 | 1004.6 |
| 20260504030116 | 75 | 45 | 8.0 | 16.0 | 0.00 | 0.00 | 0.00 | 29 | 1004.5 |
| 20260504030012 | 75 | 22 | 5.0 | 11.0 | 0.00 | 0.00 | 0.00 | 29 | 1004.5 |
| 20260504025919 | 75 | 22 | 5.0 | 12.0 | 0.00 | 0.00 | 0.00 | 29 | 1004.5 |
| 20260504025817 | 75 | 15 | 6.0 | 12.0 | 0.00 | 0.00 | 0.00 | 28 | 1004.5 |
| 20260504025724 | 75 | 10 | 6.0 | 12.0 | 0.00 | 0.00 | 0.00 | 28 | 1004.5 |
| 20260504025623 | 75 | 39 | 6.0 | 12.0 | 0.00 | 0.00 | 0.00 | 28 | 1004.5 |
| 20260504025521 | 75 | 38 | 5.0 | 12.0 | 0.00 | 0.00 | 0.00 | 28 | 1004.5 |
| 20260504025426 | 75 | 29 | 5.0 | 12.0 | 0.00 | 0.00 | 0.00 | 28 | 1004.5 |
| 20260504025331 | 75 | 10 | 6.0 | 12.0 | 0.00 | 0.00 | 0.00 | 28 | 1004.5 |
| 20260504025230 | 76 | 10 | 7.0 | 12.0 | 0.00 | 0.00 | 0.00 | 28 | 1004.5 |
| 20260504025124 | 76 | 10 | 7.0 | 13.0 | 0.00 | 0.00 | 0.00 | 28 | 1004.5 |
| 20260504025014 | 76 | 23 | 6.0 | 13.0 | 0.00 | 0.00 | 0.00 | 28 | 1004.5 |
| 20260504024910 | 76 | 36 | 6.0 | 13.0 | 0.00 | 0.00 | 0.00 | 28 | 1004.5 |
| 20260504024837 | 76 | 5 | 7.0 | 13.0 | 0.00 | 0.00 | 0.00 | 28 | 1004.5 |
| 20260504024717 | 76 | 29 | 6.0 | 13.0 | 0.00 | 0.00 | 0.00 | 28 | 1004.4 |
| 20260504024621 | 76 | 5 | 4.0 | 13.0 | 0.00 | 0.00 | 0.00 | 28 | 1004.5 |
| 20260504024517 | 76 | 19 | 6.0 | 13.0 | 0.00 | 0.00 | 0.00 | 27 | 1004.5 |
| 20260504024414 | 76 | 40 | 8.0 | 13.0 | 0.00 | 0.00 | 0.00 | 27 | 1004.5 |
| 20260504024325 | 76 | 21 | 9.0 | 13.0 | 0.00 | 0.00 | 0.00 | 27 | 1004.5 |
| 20260504024239 | 76 | 10 | 8.0 | 13.0 | 0.00 | 0.00 | 0.00 | 27 | 1004.5 |
| 20260504024114 | 76 | 15 | 6.0 | 13.0 | 0.00 | 0.00 | 0.00 | 27 | 1004.5 |
| 20260504024012 | 77 | 15 | 7.0 | 13.0 | 0.00 | 0.00 | 0.00 | 27 | 1004.5 |
| 20260504023938 | 77 | 354 | 8.0 | 13.0 | 0.00 | 0.00 | 0.00 | 27 | 1004.5 |
| 20260504023815 | 77 | 356 | 7.0 | 13.0 | 0.00 | 0.00 | 0.00 | 27 | 1004.4 |
| 20260504023714 | 77 | 34 | 6.0 | 13.0 | 0.00 | 0.00 | 0.00 | 27 | 1004.4 |
| 20260504023623 | 77 | 5 | 5.0 | 14.0 | 0.00 | 0.00 | 0.00 | 27 | 1004.5 |
| 20260504023519 | 77 | 26 | 6.0 | 16.0 | 0.00 | 0.00 | 0.00 | 27 | 1004.4 |
| 20260504023415 | 77 | 15 | 8.0 | 16.0 | 0.00 | 0.00 | 0.00 | 27 | 1004.4 |
| 20260504023322 | 77 | 23 | 8.0 | 16.0 | 0.00 | 0.00 | 0.00 | 26 | 1004.5 |
| 20260504023251 | 77 | 10 | 8.0 | 16.0 | 0.00 | 0.00 | 0.00 | 26 | 1004.5 |
| 20260504023125 | 77 | 345 | 7.0 | 16.0 | 0.00 | 0.00 | 0.00 | 26 | 1004.4 |
| 20260504023034 | 77 | 25 | 7.0 | 16.0 | 0.00 | 0.00 | 0.00 | 26 | 1004.4 |
| 20260504022915 | 78 | 10 | 9.0 | 16.0 | 0.00 | 0.00 | 0.00 | 26 | 1004.4 |
| 20260504022812 | 78 | 356 | 8.0 | 16.0 | 0.00 | 0.00 | 0.00 | 26 | 1004.4 |
| 20260504022739 | 78 | 5 | 8.0 | 16.0 | 0.00 | 0.00 | 0.00 | 26 | 1004.4 |
| 20260504022614 | 78 | 34 | 10.0 | 15.0 | 0.00 | 0.00 | 0.00 | 25 | 1004.4 |
| 20260504022538 | 78 | 15 | 9.0 | 15.0 | 0.00 | 0.00 | 0.00 | 25 | 1004.4 |
| 20260504022415 | 78 | 26 | 9.0 | 18.0 | 0.00 | 0.00 | 0.00 | 25 | 1004.3 |
| 20260504022316 | 78 | 23 | 7.0 | 18.0 | 0.00 | 0.00 | 0.00 | 25 | 1004.4 |
| 20260504022224 | 78 | 5 | 6.0 | 18.0 | 0.00 | 0.00 | 0.00 | 25 | 1004.3 |
| 20260504022118 | 78 | 28 | 6.0 | 18.0 | 0.00 | 0.00 | 0.00 | 25 | 1004.4 |
| 20260504022043 | 78 | 15 | 7.0 | 18.0 | 0.00 | 0.00 | 0.00 | 25 | 1004.4 |
| 20260504021939 | 78 | 15 | 7.0 | 18.0 | 0.00 | 0.00 | 0.00 | 25 | 1004.3 |
| 20260504021824 | 78 | 10 | 8.0 | 18.0 | 0.00 | 0.00 | 0.00 | 25 | 1004.4 |
| 20260504021723 | 79 | 23 | 10.0 | 18.0 | 0.00 | 0.00 | 0.00 | 25 | 1004.5 |
| 20260504021610 | 79 | 23 | 9.0 | 14.0 | 0.00 | 0.00 | 0.00 | 25 | 1004.3 |
| 20260504021536 | 79 | 343 | 9.0 | 14.0 | 0.00 | 0.00 | 0.00 | 26 | 1004.3 |
| 20260504021414 | 79 | 32 | 8.0 | 14.0 | 0.00 | 0.00 | 0.00 | 25 | 1004.4 |
| 20260504021311 | 79 | 19 | 7.0 | 14.0 | 0.00 | 0.00 | 0.00 | 25 | 1004.4 |
| 20260504021238 | 79 | 36 | 6.0 | 12.0 | 0.00 | 0.00 | 0.00 | 25 | 1004.4 |
| 20260504021113 | 79 | 22 | 7.0 | 12.0 | 0.00 | 0.00 | 0.00 | 25 | 1004.3 |
| 20260504021010 | 79 | 24 | 7.0 | 12.0 | 0.00 | 0.00 | 0.00 | 25 | 1004.3 |
| 20260504020921 | 79 | 19 | 8.0 | 12.0 | 0.00 | 0.00 | 0.00 | 25 | 1004.3 |
| 20260504020817 | 79 | 1 | 8.0 | 13.0 | 0.00 | 0.00 | 0.00 | 25 | 1004.3 |
| 20260504020726 | 79 | 19 | 8.0 | 13.0 | 0.00 | 0.00 | 0.00 | 25 | 1004.4 |
| 20260504020620 | 79 | 15 | 8.0 | 13.0 | 0.00 | 0.00 | 0.00 | 25 | 1004.4 |
| 20260504020547 | 79 | 5 | 7.0 | 13.0 | 0.00 | 0.00 | 0.00 | 25 | 1004.4 |
| 20260504020424 | 79 | 19 | 5.0 | 13.0 | 0.00 | 0.00 | 0.00 | 25 | 1004.4 |
| 20260504020321 | 79 | 22 | 4.0 | 13.0 | 0.00 | 0.00 | 0.00 | 25 | 1004.3 |
| 20260504020212 | 79 | 32 | 5.0 | 13.0 | 0.00 | 0.00 | 0.00 | 25 | 1004.3 |
| 20260504020127 | 79 | 24 | 6.0 | 14.0 | 0.00 | 0.00 | 0.00 | 25 | 1004.3 |
| 20260504020033 | 80 | 19 | 7.0 | 14.0 | 0.00 | 0.00 | 0.00 | 25 | 1004.3 |
| 20260504015910 | 80 | 5 | 8.0 | 14.0 | 0.00 | 0.00 | 0.00 | 25 | 1004.4 |
| 20260504015838 | 80 | 29 | 8.0 | 14.0 | 0.00 | 0.00 | 0.00 | 25 | 1004.4 |
| 20260504015717 | 80 | 44 | 7.0 | 14.0 | 0.00 | 0.00 | 0.00 | 25 | 1004.5 |
| 20260504015615 | 80 | 5 | 7.0 | 14.0 | 0.00 | 0.00 | 0.00 | 25 | 1004.4 |
| 20260504015522 | 80 | 15 | 6.0 | 14.0 | 0.00 | 0.00 | 0.00 | 25 | 1004.4 |
| 20260504015419 | 80 | 1 | 7.0 | 14.0 | 0.00 | 0.00 | 0.00 | 25 | 1004.4 |
| 20260504015345 | 80 | 54 | 8.0 | 14.0 | 0.00 | 0.00 | 0.00 | 25 | 1004.4 |
| 20260504015222 | 80 | 29 | 7.0 | 14.0 | 0.00 | 0.00 | 0.00 | 25 | 1004.5 |
| 20260504015126 | 80 | 15 | 7.0 | 14.0 | 0.00 | 0.00 | 0.00 | 25 | 1004.4 |
| 20260504015030 | 80 | 21 | 5.0 | 16.0 | 0.00 | 0.00 | 0.00 | 25 | 1004.4 |
| 20260504014912 | 80 | 15 | 6.0 | 16.0 | 0.00 | 0.00 | 0.00 | 25 | 1004.4 |
| 20260504014835 | 80 | 36 | 7.0 | 16.0 | 0.00 | 0.00 | 0.00 | 25 | 1004.4 |
| 20260504014711 | 80 | 15 | 8.0 | 16.0 | 0.00 | 0.00 | 0.00 | 25 | 1004.4 |
| 20260504014630 | 80 | 27 | 8.0 | 16.0 | 0.00 | 0.00 | 0.00 | 25 | 1004.4 |
| 20260504014534 | 80 | 15 | 9.0 | 16.0 | 0.00 | 0.00 | 0.00 | 25 | 1004.4 |
| 20260504014411 | 80 | 42 | 8.0 | 16.0 | 0.00 | 0.00 | 0.00 | 24 | 1004.5 |
| 20260504014309 | 80 | 359 | 8.0 | 16.0 | 0.00 | 0.00 | 0.00 | 24 | 1004.5 |
| 20260504014221 | 80 | 5 | 10.0 | 16.0 | 0.00 | 0.00 | 0.00 | 24 | 1004.5 |
| 20260504014116 | 80 | 23 | 9.0 | 15.0 | 0.00 | 0.00 | 0.00 | 24 | 1004.4 |
| 20260504014013 | 80 | 359 | 8.0 | 15.0 | 0.00 | 0.00 | 0.00 | 24 | 1004.4 |
| 20260504013920 | 80 | 15 | 8.0 | 15.0 | 0.00 | 0.00 | 0.00 | 24 | 1004.5 |
| 20260504013817 | 80 | 26 | 9.0 | 15.0 | 0.00 | 0.00 | 0.00 | 24 | 1004.4 |
| 20260504013744 | 80 | 31 | 9.0 | 15.0 | 0.00 | 0.00 | 0.00 | 24 | 1004.4 |
| 20260504013618 | 81 | 28 | 9.0 | 15.0 | 0.00 | 0.00 | 0.00 | 24 | 1004.5 |
| 20260504013509 | 81 | 348 | 8.0 | 15.0 | 0.00 | 0.00 | 0.00 | 24 | 1004.5 |
| 20260504013427 | 81 | 15 | 9.0 | 15.0 | 0.00 | 0.00 | 0.00 | 24 | 1004.5 |
| 20260504013311 | 81 | 15 | 7.0 | 14.0 | 0.00 | 0.00 | 0.00 | 25 | 1004.5 |
| 20260504013230 | 81 | 15 | 7.0 | 14.0 | 0.00 | 0.00 | 0.00 | 25 | 1004.5 |
| 20260504013115 | 81 | 48 | 9.0 | 14.0 | 0.00 | 0.00 | 0.00 | 24 | 1004.5 |
| 20260504013011 | 81 | 25 | 8.0 | 14.0 | 0.00 | 0.00 | 0.00 | 24 | 1004.6 |
| 20260504012937 | 81 | 358 | 7.0 | 14.0 | 0.00 | 0.00 | 0.00 | 24 | 1004.5 |
| 20260504012817 | 81 | 28 | 10.0 | 14.0 | 0.00 | 0.00 | 0.00 | 24 | 1004.5 |
| 20260504012725 | 81 | 5 | 10.0 | 14.0 | 0.00 | 0.00 | 0.00 | 24 | 1004.6 |
| 20260504012620 | 81 | 354 | 8.0 | 14.0 | 0.00 | 0.00 | 0.00 | 25 | 1004.6 |
| 20260504012516 | 81 | 54 | 6.0 | 13.0 | 0.00 | 0.00 | 0.00 | 24 | 1004.6 |
| 20260504012422 | 81 | 22 | 5.0 | 13.0 | 0.00 | 0.00 | 0.00 | 25 | 1004.6 |
| 20260504012320 | 81 | 345 | 5.0 | 13.0 | 0.00 | 0.00 | 0.00 | 24 | 1004.6 |
| 20260504012231 | 81 | 56 | 5.0 | 16.0 | 0.00 | 0.00 | 0.00 | 24 | 1004.6 |
| 20260504012129 | 81 | 29 | 6.0 | 16.0 | 0.00 | 0.00 | 0.00 | 24 | 1004.6 |
| 20260504012016 | 81 | 41 | 6.0 | 16.0 | 0.00 | 0.00 | 0.00 | 24 | 1004.5 |
| 20260504011911 | 81 | 34 | 7.0 | 16.0 | 0.00 | 0.00 | 0.00 | 24 | 1004.6 |
| 20260504011835 | 81 | 359 | 8.0 | 16.0 | 0.00 | 0.00 | 0.00 | 24 | 1004.6 |
| 20260504011710 | 81 | 35 | 7.0 | 16.0 | 0.00 | 0.00 | 0.00 | 24 | 1004.5 |
| 20260504011638 | 81 | 22 | 6.0 | 16.0 | 0.00 | 0.00 | 0.00 | 24 | 1004.5 |
| 20260504011516 | 81 | 15 | 6.0 | 16.0 | 0.00 | 0.00 | 0.00 | 24 | 1004.6 |
| 20260504011413 | 81 | 26 | 6.0 | 16.0 | 0.00 | 0.00 | 0.00 | 24 | 1004.5 |
| 20260504011311 | 81 | 75 | 6.0 | 16.0 | 0.00 | 0.00 | 0.00 | 24 | 1004.6 |
| 20260504011217 | 81 | 5 | 8.0 | 16.0 | 0.00 | 0.00 | 0.00 | 25 | 1004.6 |
| 20260504011121 | 81 | 25 | 9.0 | 18.0 | 0.00 | 0.00 | 0.00 | 24 | 1004.6 |
| 20260504011018 | 81 | 10 | 7.0 | 20.0 | 0.00 | 0.00 | 0.00 | 25 | 1004.6 |
| 20260504010916 | 81 | 28 | 7.0 | 20.0 | 0.00 | 0.00 | 0.00 | 24 | 1004.5 |
| 20260504010847 | 81 | 27 | 9.0 | 20.0 | 0.00 | 0.00 | 0.00 | 24 | 1004.5 |
| 20260504010711 | 81 | 355 | 11.0 | 20.0 | 0.00 | 0.00 | 0.00 | 24 | 1004.6 |
| 20260504010627 | 81 | 27 | 11.0 | 20.0 | 0.00 | 0.00 | 0.00 | 24 | 1004.6 |
| 20260504010533 | 81 | 345 | 9.0 | 20.0 | 0.00 | 0.11 | 0.00 | 25 | 1004.6 |
| 20260504010409 | 81 | 321 | 10.0 | 20.0 | 0.00 | 0.11 | 0.00 | 24 | 1004.6 |
| 20260504010313 | 82 | 54 | 11.0 | 20.0 | 0.00 | 0.11 | 0.00 | 24 | 1004.7 |
| 20260504010213 | 82 | 41 | 10.0 | 20.0 | 0.00 | 0.11 | 0.00 | 24 | 1004.6 |
| 20260504010112 | 82 | 359 | 10.0 | 20.0 | 0.00 | 0.11 | 0.00 | 25 | 1004.6 |
| 20260504010018 | 82 | 24 | 9.0 | 18.0 | 0.00 | 0.11 | 0.00 | 24 | 1004.6 |
| 20260504005945 | 82 | 15 | 10.0 | 18.0 | 0.00 | 0.11 | 0.00 | 24 | 1004.6 |
| 20260504005822 | 82 | 10 | 9.0 | 18.0 | 0.00 | 0.11 | 0.00 | 24 | 1004.6 |
| 20260504005730 | 82 | 25 | 11.0 | 18.0 | 0.00 | 0.11 | 0.00 | 24 | 1004.6 |
| 20260504005624 | 82 | 351 | 13.0 | 18.0 | 0.00 | 0.11 | 0.00 | 24 | 1004.6 |
| 20260504005522 | 82 | 332 | 11.0 | 16.0 | 0.00 | 0.11 | 0.00 | 24 | 1004.6 |
| 20260504005432 | 82 | 15 | 9.0 | 16.0 | 0.00 | 0.11 | 0.00 | 24 | 1004.6 |
| 20260504005310 | 82 | 21 | 8.0 | 15.0 | 0.00 | 0.11 | 0.00 | 24 | 1004.6 |
| 20260504005113 | 82 | 24 | 8.0 | 15.0 | 0.00 | 0.11 | 0.00 | 24 | 1004.6 |
| 20260504005010 | 82 | 36 | 8.0 | 15.0 | 0.00 | 0.11 | 0.00 | 25 | 1004.6 |
| 20260504004915 | 82 | 325 | 8.0 | 15.0 | 0.00 | 0.11 | 0.00 | 25 | 1004.6 |
| 20260504004842 | 82 | 19 | 6.0 | 15.0 | 0.00 | 0.11 | 0.00 | 25 | 1004.6 |
| 20260504004725 | 82 | 85 | 7.0 | 15.0 | 0.00 | 0.11 | 0.00 | 25 | 1004.6 |
| 20260504004621 | 82 | 38 | 9.0 | 15.0 | 0.00 | 0.11 | 0.00 | 25 | 1004.6 |
| 20260504004547 | 82 | 46 | 9.0 | 15.0 | 0.00 | 0.11 | 0.00 | 25 | 1004.6 |
| 20260504004431 | 82 | 24 | 9.0 | 15.0 | 0.00 | 0.11 | 0.00 | 25 | 1004.6 |
| 20260504004329 | 82 | 45 | 8.0 | 15.0 | 0.00 | 0.11 | 0.00 | 25 | 1004.6 |
| 20260504004227 | 82 | 32 | 7.0 | 15.0 | 0.00 | 0.11 | 0.00 | 24 | 1004.5 |
| 20260504004132 | 82 | 15 | 10.0 | 15.0 | 0.00 | 0.11 | 0.00 | 24 | 1004.6 |
| 20260504004037 | 82 | 15 | 10.0 | 15.0 | 0.00 | 0.11 | 0.00 | 24 | 1004.6 |
| 20260504003917 | 82 | 26 | 9.0 | 17.0 | 0.00 | 0.11 | 0.00 | 24 | 1004.6 |
| 20260504003815 | 82 | 15 | 8.0 | 17.0 | 0.00 | 0.11 | 0.00 | 24 | 1004.6 |
| 20260504003720 | 82 | 48 | 10.0 | 17.0 | 0.00 | 0.11 | 0.00 | 24 | 1004.6 |
| 20260504003625 | 82 | 354 | 9.0 | 17.0 | 0.00 | 0.11 | 0.00 | 24 | 1004.5 |
| 20260504003522 | 82 | 52 | 8.0 | 17.0 | 0.00 | 0.11 | 0.00 | 25 | 1004.6 |
| 20260504003427 | 82 | 55 | 8.0 | 17.0 | 0.00 | 0.11 | 0.00 | 24 | 1004.6 |
| 20260504003324 | 82 | 34 | 7.0 | 17.0 | 0.00 | 0.11 | 0.00 | 25 | 1004.6 |
| 20260504003232 | 82 | 15 | 7.0 | 17.0 | 0.00 | 0.11 | 0.00 | 24 | 1004.6 |
| 20260504003131 | 82 | 5 | 10.0 | 17.0 | 0.00 | 0.11 | 0.00 | 24 | 1004.6 |
| 20260504003035 | 82 | 32 | 10.0 | 17.0 | 0.00 | 0.11 | 0.00 | 23 | 1004.6 |
| 20260504002912 | 82 | 34 | 10.0 | 17.0 | 0.00 | 0.11 | 0.00 | 23 | 1004.6 |
| 20260504002809 | 82 | 25 | 10.0 | 17.0 | 0.00 | 0.11 | 0.00 | 23 | 1004.5 |
| 20260504002738 | 83 | 50 | 9.0 | 17.0 | 0.00 | 0.11 | 0.00 | 23 | 1004.6 |
| 20260504002622 | 83 | 25 | 8.0 | 17.0 | 0.00 | 0.11 | 0.00 | 24 | 1004.6 |
| 20260504002522 | 83 | 27 | 8.0 | 17.0 | 0.00 | 0.11 | 0.00 | 23 | 1004.6 |
| 20260504002418 | 83 | 76 | 9.0 | 17.0 | 0.00 | 0.11 | 0.00 | 24 | 1004.6 |
| 20260504002324 | 83 | 23 | 10.0 | 17.0 | 0.00 | 0.11 | 0.00 | 23 | 1004.6 |
| 20260504002222 | 83 | 44 | 10.0 | 17.0 | 0.00 | 0.11 | 0.00 | 23 | 1004.6 |
| 20260504002147 | 83 | 46 | 10.0 | 15.0 | 0.00 | 0.11 | 0.00 | 24 | 1004.5 |
| 20260504002023 | 83 | 354 | 8.0 | 14.0 | 0.00 | 0.11 | 0.00 | 22 | 1004.5 |
| 20260504001930 | 83 | 10 | 8.0 | 14.0 | 0.00 | 0.11 | 0.00 | 22 | 1004.5 |
| 20260504001831 | 83 | 353 | 7.0 | 15.0 | 0.00 | 0.11 | 0.00 | 23 | 1004.6 |
| 20260504001717 | 83 | 29 | 7.0 | 15.0 | 0.00 | 0.11 | 0.00 | 23 | 1004.6 |
| 20260504001611 | 83 | 22 | 8.0 | 15.0 | 0.00 | 0.11 | 0.00 | 23 | 1004.6 |
| 20260504001518 | 83 | 72 | 8.0 | 15.0 | 0.00 | 0.11 | 0.00 | 23 | 1004.6 |
| 20260504001415 | 83 | 55 | 9.0 | 15.0 | 0.00 | 0.11 | 0.00 | 23 | 1004.6 |
| 20260504001312 | 83 | 56 | 7.0 | 15.0 | 0.00 | 0.11 | 0.00 | 23 | 1004.5 |
| 20260504001219 | 83 | 21 | 4.0 | 15.0 | 0.00 | 0.11 | 0.00 | 23 | 1004.6 |
| 20260504001116 | 83 | 90 | 5.0 | 19.0 | 0.00 | 0.11 | 0.00 | 23 | 1004.6 |
| 20260504001022 | 83 | 94 | 8.0 | 19.0 | 0.00 | 0.11 | 0.00 | 23 | 1004.6 |
| 20260504000920 | 83 | 22 | 7.0 | 19.0 | 0.00 | 0.11 | 0.00 | 23 | 1004.6 |
| 20260504000825 | 83 | 40 | 5.0 | 19.0 | 0.00 | 0.11 | 0.00 | 22 | 1004.6 |
| 20260504000723 | 83 | 86 | 5.0 | 19.0 | 0.00 | 0.11 | 0.00 | 23 | 1004.6 |
| 20260504000631 | 83 | 61 | 8.0 | 19.0 | 0.00 | 0.11 | 0.00 | 23 | 1004.6 |
| 20260504000510 | 83 | 10 | 9.0 | 19.0 | 0.00 | 0.11 | 0.00 | 24 | 1004.6 |
| 20260504000419 | 83 | 41 | 10.0 | 19.0 | 0.00 | 0.11 | 0.00 | 23 | 1004.6 |
| 20260504000325 | 83 | 357 | 8.0 | 19.0 | 0.00 | 0.11 | 0.00 | 23 | 1004.6 |
| 20260504000223 | 83 | 32 | 4.0 | 13.0 | 0.00 | 0.11 | 0.00 | 22 | 1004.6 |
| 20260504000125 | 83 | 15 | 4.0 | 13.0 | 0.00 | 0.11 | 0.00 | 22 | 1004.7 |
| 20260504000022 | 83 | 33 | 5.0 | 13.0 | 0.00 | 0.11 | 0.00 | 22 | 1004.6 |
| 20260503235948 | 83 | 10 | 6.0 | 13.0 | 0.00 | 0.11 | 0.00 | 23 | 1004.6 |
| 20260503235831 | 83 | 74 | 6.0 | 14.0 | 0.00 | 0.11 | 0.00 | 23 | 1004.6 |
| 20260503235715 | 83 | 64 | 7.0 | 14.0 | 0.00 | 0.11 | 0.00 | 23 | 1004.6 |
| 20260503235630 | 83 | 36 | 7.0 | 14.0 | 0.00 | 0.11 | 0.00 | 23 | 1004.6 |
| 20260503235513 | 83 | 39 | 6.0 | 14.0 | 0.00 | 0.11 | 0.00 | 24 | 1004.6 |
| 20260503235417 | 83 | 81 | 6.0 | 14.0 | 0.00 | 0.11 | 0.00 | 23 | 1004.6 |
| 20260503235313 | 83 | 52 | 5.0 | 14.0 | 0.00 | 0.11 | 0.00 | 23 | 1004.6 |
| 20260503235213 | 83 | 44 | 7.0 | 14.0 | 0.00 | 0.11 | 0.00 | 23 | 1004.6 |
| 20260503235116 | 83 | 51 | 8.0 | 14.0 | 0.00 | 0.11 | 0.00 | 23 | 1004.7 |
| 20260503235015 | 83 | 64 | 8.0 | 13.0 | 0.00 | 0.11 | 0.00 | 24 | 1004.7 |
| 20260503234922 | 83 | 27 | 7.0 | 13.0 | 0.00 | 0.11 | 0.00 | 23 | 1004.5 |
| 20260503234820 | 83 | 10 | 7.0 | 13.0 | 0.00 | 0.11 | 0.00 | 23 | 1004.6 |
| 20260503234727 | 83 | 22 | 8.0 | 13.0 | 0.00 | 0.11 | 0.00 | 24 | 1004.6 |
| 20260503234622 | 83 | 15 | 8.0 | 13.0 | 0.00 | 0.11 | 0.00 | 23 | 1004.7 |
| 20260503234547 | 83 | 50 | 6.0 | 13.0 | 0.00 | 0.11 | 0.00 | 23 | 1004.7 |
| 20260503234423 | 83 | 61 | 6.0 | 13.0 | 0.00 | 0.11 | 0.00 | 24 | 1004.7 |
| 20260503234334 | 83 | 40 | 7.0 | 17.0 | 0.00 | 0.11 | 0.00 | 23 | 1004.7 |
| 20260503234209 | 84 | 39 | 8.0 | 17.0 | 0.00 | 0.11 | 0.00 | 24 | 1004.8 |
| 20260503234129 | 84 | 56 | 8.0 | 17.0 | 0.00 | 0.11 | 0.00 | 25 | 1004.8 |
| 20260503234034 | 84 | 36 | 8.0 | 17.0 | 0.00 | 0.11 | 0.00 | 25 | 1004.8 |
| 20260503233910 | 84 | 10 | 6.0 | 17.0 | 0.00 | 0.11 | 0.00 | 24 | 1004.8 |
| 20260503233835 | 84 | 348 | 5.0 | 17.0 | 0.00 | 0.11 | 0.00 | 24 | 1004.8 |
| 20260503233733 | 84 | 23 | 7.0 | 17.0 | 0.00 | 0.11 | 0.00 | 23 | 1004.8 |
| 20260503233640 | 84 | 27 | 9.0 | 17.0 | 0.00 | 0.11 | 0.00 | 24 | 1004.8 |
| 20260503233517 | 84 | 20 | 8.0 | 17.0 | 0.00 | 0.11 | 0.00 | 24 | 1004.8 |
| 20260503233423 | 84 | 33 | 9.0 | 17.0 | 0.00 | 0.11 | 0.00 | 24 | 1004.9 |
| 20260503233319 | 84 | 15 | 7.0 | 13.0 | 0.00 | 0.11 | 0.00 | 24 | 1004.8 |
| 20260503233227 | 84 | 27 | 5.0 | 12.0 | 0.00 | 0.11 | 0.00 | 24 | 1004.8 |
| 20260503233121 | 84 | 50 | 4.0 | 12.0 | 0.00 | 0.11 | 0.00 | 24 | 1004.8 |
| 20260503233028 | 84 | 56 | 5.0 | 12.0 | 0.00 | 0.11 | 0.00 | 23 | 1004.8 |
| 20260503232908 | 84 | 36 | 5.0 | 14.0 | 0.00 | 0.11 | 0.00 | 23 | 1004.8 |
| 20260503232826 | 84 | 33 | 5.0 | 14.0 | 0.00 | 0.11 | 0.00 | 22 | 1004.8 |
| 20260503232714 | 84 | 64 | 7.0 | 14.0 | 0.00 | 0.11 | 0.00 | 21 | 1004.9 |
| 20260503232609 | 84 | 55 | 5.0 | 14.0 | 0.00 | 0.11 | 0.00 | 21 | 1004.9 |
| 20260503232535 | 84 | 71 | 4.0 | 14.0 | 0.00 | 0.11 | 0.00 | 21 | 1004.9 |
| 20260503232433 | 84 | 54 | 5.0 | 15.0 | 0.00 | 0.11 | 0.00 | 21 | 1005.0 |
| 20260503232309 | 84 | 35 | 5.0 | 15.0 | 0.00 | 0.11 | 0.00 | 21 | 1005.0 |
| 20260503232222 | 84 | 59 | 8.0 | 15.0 | 0.00 | 0.11 | 0.00 | 21 | 1005.0 |
| 20260503232118 | 84 | 45 | 8.0 | 15.0 | 0.00 | 0.11 | 0.00 | 21 | 1005.0 |
| 20260503232023 | 84 | 19 | 7.0 | 15.0 | 0.00 | 0.11 | 0.00 | 22 | 1005.0 |
| 20260503231950 | 84 | 360 | 7.0 | 15.0 | 0.00 | 0.11 | 0.00 | 22 | 1005.0 |
| 20260503231852 | 84 | 45 | 6.0 | 15.0 | 0.00 | 0.11 | 0.00 | 21 | 1005.0 |
| 20260503231748 | 84 | 22 | 6.0 | 15.0 | 0.00 | 0.11 | 0.00 | 21 | 1005.0 |
| 20260503231634 | 84 | 60 | 8.0 | 15.0 | 0.00 | 0.11 | 0.00 | 21 | 1005.0 |
| 20260503231558 | 84 | 1 | 8.0 | 15.0 | 0.00 | 0.11 | 0.00 | 21 | 1005.0 |
| 20260503231411 | 84 | 27 | 5.0 | 10.0 | 0.00 | 0.11 | 0.00 | 21 | 1005.2 |
| 20260503231320 | 84 | 46 | 4.0 | 11.0 | 0.00 | 0.11 | 0.00 | 21 | 1005.1 |
| 20260503231212 | 84 | 81 | 4.0 | 11.0 | 0.00 | 0.11 | 0.00 | 20 | 1005.1 |
| 20260503231138 | 84 | 81 | 4.0 | 12.0 | 0.00 | 0.11 | 0.00 | 20 | 1005.1 |
| 20260503231012 | 84 | 71 | 3.0 | 12.0 | 0.00 | 0.11 | 0.00 | 20 | 1005.1 |
| 20260503230939 | 84 | 29 | 3.0 | 12.0 | 0.00 | 0.11 | 0.00 | 21 | 1005.2 |
| 20260503230813 | 84 | 38 | 3.0 | 12.0 | 0.00 | 0.11 | 0.00 | 21 | 1005.2 |
| 20260503230721 | 84 | 37 | 5.0 | 12.0 | 0.00 | 0.11 | 0.00 | 20 | 1005.2 |
| 20260503230612 | 84 | 32 | 7.0 | 12.0 | 0.00 | 0.11 | 0.00 | 21 | 1005.3 |
| 20260503230521 | 84 | 22 | 7.0 | 12.0 | 0.00 | 0.11 | 0.00 | 21 | 1005.3 |
| 20260503230447 | 84 | 5 | 6.0 | 12.0 | 0.00 | 0.11 | 0.00 | 21 | 1005.3 |
| 20260503230323 | 84 | 46 | 6.0 | 12.0 | 0.00 | 0.11 | 0.00 | 22 | 1005.3 |
| 20260503230233 | 84 | 54 | 5.0 | 11.0 | 0.00 | 0.11 | 0.00 | 22 | 1005.3 |
| 20260503230147 | 84 | 72 | 5.0 | 12.0 | 0.00 | 0.11 | 0.00 | 22 | 1005.3 |
| 20260503230031 | 84 | 60 | 4.0 | 12.0 | 0.00 | 0.11 | 0.00 | 22 | 1005.3 |
| 20260503225926 | 84 | 47 | 4.0 | 12.0 | 0.00 | 0.11 | 0.00 | 22 | 1005.3 |
| 20260503225837 | 84 | 36 | 5.0 | 12.0 | 0.00 | 0.11 | 0.00 | 22 | 1005.3 |
| 20260503225715 | 84 | 58 | 5.0 | 12.0 | 0.00 | 0.11 | 0.00 | 21 | 1005.3 |
| 20260503225631 | 84 | 5 | 5.0 | 13.0 | 0.00 | 0.11 | 0.00 | 21 | 1005.4 |
| 20260503225516 | 84 | 36 | 6.0 | 13.0 | 0.00 | 0.11 | 0.00 | 20 | 1005.4 |
| 20260503225443 | 84 | 15 | 6.0 | 13.0 | 0.00 | 0.11 | 0.00 | 23 | 1005.4 |
| 20260503225337 | 84 | 86 | 5.0 | 13.0 | 0.00 | 0.11 | 0.00 | 22 | 1005.4 |
| 20260503225223 | 84 | 36 | 4.0 | 13.0 | 0.00 | 0.11 | 0.00 | 22 | 1005.4 |
| 20260503225118 | 84 | 54 | 3.0 | 13.0 | 0.00 | 0.11 | 0.00 | 20 | 1005.4 |
| 20260503225029 | 84 | 87 | 3.0 | 13.0 | 0.00 | 0.11 | 0.00 | 21 | 1005.4 |
| 20260503224946 | 84 | 44 | 5.0 | 15.0 | 0.00 | 0.11 | 0.00 | 22 | 1005.5 |
| 20260503224831 | 84 | 66 | 6.0 | 15.0 | 0.00 | 0.11 | 0.00 | 22 | 1005.5 |
| 20260503224729 | 84 | 25 | 5.0 | 15.0 | 0.00 | 0.11 | 0.00 | 21 | 1005.5 |
| 20260503224644 | 84 | 58 | 5.0 | 15.0 | 0.00 | 0.11 | 0.00 | 21 | 1005.6 |
| 20260503224548 | 84 | 58 | 6.0 | 15.0 | 0.00 | 0.11 | 0.00 | 22 | 1005.6 |
| 20260503224424 | 84 | 54 | 7.0 | 15.0 | 0.00 | 0.11 | 0.00 | 22 | 1005.7 |
| 20260503224351 | 84 | 24 | 6.0 | 15.0 | 0.00 | 0.11 | 0.00 | 22 | 1005.7 |
| 20260503224235 | 84 | 102 | 7.0 | 15.0 | 0.00 | 0.11 | 0.00 | 22 | 1005.6 |
| 20260503224114 | 84 | 15 | 9.0 | 15.0 | 0.00 | 0.11 | 0.00 | 22 | 1005.7 |
| 20260503224013 | 84 | 15 | 6.0 | 15.0 | 0.00 | 0.11 | 0.00 | 23 | 1005.7 |
| 20260503223918 | 84 | 26 | 4.0 | 11.0 | 0.00 | 0.11 | 0.00 | 23 | 1005.6 |
| 20260503223816 | 84 | 90 | 3.0 | 11.0 | 0.00 | 0.11 | 0.00 | 23 | 1005.7 |
| 20260503223712 | 84 | 79 | 4.0 | 11.0 | 0.00 | 0.11 | 0.00 | 23 | 1005.6 |
| 20260503223617 | 84 | 65 | 4.0 | 13.0 | 0.00 | 0.11 | 0.00 | 24 | 1005.7 |
| 20260503223518 | 84 | 66 | 4.0 | 13.0 | 0.00 | 0.11 | 0.00 | 23 | 1005.7 |
| 20260503223425 | 84 | 48 | 4.0 | 13.0 | 0.00 | 0.11 | 0.00 | 23 | 1005.8 |
| 20260503223323 | 84 | 43 | 5.0 | 13.0 | 0.00 | 0.11 | 0.00 | 22 | 1005.7 |
| 20260503223231 | 84 | 43 | 5.0 | 13.0 | 0.00 | 0.11 | 0.00 | 22 | 1005.7 |
| 20260503223123 | 84 | 44 | 5.0 | 13.0 | 0.00 | 0.11 | 0.00 | 22 | 1005.8 |
| 20260503223028 | 83 | 42 | 4.0 | 13.0 | 0.00 | 0.11 | 0.00 | 23 | 1005.8 |
| 20260503222910 | 83 | 92 | 5.0 | 13.0 | 0.00 | 0.11 | 0.00 | 23 | 1005.9 |
| 20260503222837 | 83 | 62 | 5.0 | 13.0 | 0.00 | 0.11 | 0.00 | 22 | 1005.9 |
| 20260503222716 | 83 | 54 | 7.0 | 13.0 | 0.00 | 0.11 | 0.00 | 22 | 1005.9 |
| 20260503222631 | 83 | 15 | 6.0 | 12.0 | 0.00 | 0.11 | 0.00 | 23 | 1005.9 |
| 20260503222515 | 83 | 354 | 5.0 | 12.0 | 0.00 | 0.11 | 0.00 | 23 | 1005.9 |
| 20260503222421 | 83 | 5 | 4.0 | 12.0 | 0.00 | 0.11 | 0.00 | 23 | 1005.9 |
| 20260503222338 | 83 | 353 | 6.0 | 12.0 | 0.00 | 0.11 | 0.00 | 24 | 1006.0 |
| 20260503222225 | 83 | 36 | 6.0 | 12.0 | 0.00 | 0.11 | 0.00 | 23 | 1006.0 |
| 20260503222125 | 83 | 5 | 6.0 | 14.0 | 0.00 | 0.11 | 0.00 | 24 | 1006.0 |
| 20260503222031 | 83 | 54 | 5.0 | 14.0 | 0.00 | 0.11 | 0.00 | 23 | 1006.0 |
| 20260503221927 | 83 | 38 | 6.0 | 14.0 | 0.00 | 0.11 | 0.00 | 24 | 1006.0 |
| 20260503221811 | 83 | 62 | 8.0 | 14.0 | 0.00 | 0.11 | 0.00 | 23 | 1006.0 |
| 20260503221739 | 83 | 21 | 7.0 | 14.0 | 0.00 | 0.11 | 0.00 | 24 | 1006.0 |
| 20260503221614 | 83 | 38 | 6.0 | 14.0 | 0.00 | 0.11 | 0.00 | 25 | 1006.1 |
| 20260503221512 | 83 | 15 | 5.0 | 14.0 | 0.00 | 0.11 | 0.00 | 25 | 1006.1 |
| 20260503221418 | 83 | 22 | 7.0 | 14.0 | 0.00 | 0.11 | 0.00 | 24 | 1006.1 |
| 20260503221349 | 83 | 39 | 7.0 | 14.0 | 0.00 | 0.11 | 0.00 | 25 | 1006.1 |
| 20260503221226 | 83 | 33 | 6.0 | 13.0 | 0.00 | 0.11 | 0.00 | 25 | 1006.1 |
| 20260503221119 | 83 | 48 | 6.0 | 13.0 | 0.00 | 0.11 | 0.00 | 25 | 1006.2 |
| 20260503221026 | 83 | 5 | 7.0 | 13.0 | 0.00 | 0.11 | 0.00 | 26 | 1006.2 |
| 20260503220923 | 83 | 15 | 6.0 | 17.0 | 0.00 | 0.11 | 0.00 | 26 | 1006.2 |
| 20260503220830 | 83 | 49 | 5.0 | 17.0 | 0.00 | 0.11 | 0.00 | 26 | 1006.2 |
| 20260503220726 | 83 | 20 | 5.0 | 17.0 | 0.00 | 0.11 | 0.00 | 26 | 1006.3 |
| 20260503220614 | 83 | 48 | 7.0 | 17.0 | 0.00 | 0.11 | 0.00 | 25 | 1006.2 |
| 20260503220510 | 83 | 55 | 7.0 | 17.0 | 0.00 | 0.11 | 0.00 | 26 | 1006.3 |
| 20260503220417 | 83 | 69 | 6.0 | 17.0 | 0.00 | 0.11 | 0.00 | 26 | 1006.4 |
| 20260503220313 | 83 | 48 | 7.0 | 17.0 | 0.00 | 0.11 | 0.00 | 26 | 1006.2 |
| 20260503220241 | 83 | 27 | 8.0 | 17.0 | 0.00 | 0.11 | 0.00 | 27 | 1006.3 |
| 20260503220144 | 83 | 15 | 6.0 | 17.0 | 0.00 | 0.11 | 0.00 | 29 | 1006.3 |
| 20260503220021 | 83 | 52 | 5.0 | 14.0 | 0.00 | 0.11 | 0.00 | 28 | 1006.3 |
| 20260503215919 | 82 | 40 | 6.0 | 15.0 | 0.00 | 0.11 | 0.00 | 28 | 1006.4 |
| 20260503215828 | 82 | 5 | 6.0 | 16.0 | 0.00 | 0.11 | 0.00 | 28 | 1006.4 |
| 20260503215736 | 82 | 10 | 4.0 | 16.0 | 0.00 | 0.11 | 0.00 | 28 | 1006.3 |
| 20260503215610 | 82 | 15 | 6.0 | 16.0 | 0.00 | 0.11 | 0.00 | 27 | 1006.4 |
| 20260503215516 | 82 | 32 | 7.0 | 16.0 | 0.00 | 0.11 | 0.00 | 28 | 1006.4 |
| 20260503215413 | 82 | 5 | 6.0 | 16.0 | 0.00 | 0.11 | 0.00 | 28 | 1006.4 |
| 20260503215311 | 82 | 331 | 7.0 | 16.0 | 0.00 | 0.11 | 0.00 | 29 | 1006.4 |
| 20260503215219 | 82 | 38 | 7.0 | 16.0 | 0.00 | 0.11 | 0.00 | 28 | 1006.4 |
| 20260503215119 | 82 | 344 | 9.0 | 16.0 | 0.00 | 0.11 | 0.00 | 30 | 1006.4 |
| 20260503215025 | 82 | 27 | 7.0 | 16.0 | 0.00 | 0.11 | 0.00 | 30 | 1006.5 |
| 20260503214942 | 82 | 354 | 4.0 | 14.0 | 0.00 | 0.11 | 0.00 | 30 | 1006.5 |
| 20260503214827 | 82 | 52 | 6.0 | 14.0 | 0.00 | 0.11 | 0.00 | 30 | 1006.5 |
| 20260503214721 | 82 | 339 | 8.0 | 14.0 | 0.00 | 0.11 | 0.00 | 30 | 1006.5 |
| 20260503214630 | 82 | 314 | 8.0 | 14.0 | 0.00 | 0.11 | 0.00 | 30 | 1006.5 |
| 20260503214524 | 82 | 29 | 7.0 | 15.0 | 0.00 | 0.11 | 0.00 | 29 | 1006.5 |
| 20260503214434 | 82 | 358 | 5.0 | 15.0 | 0.00 | 0.11 | 0.00 | 29 | 1006.5 |
| 20260503214312 | 82 | 323 | 4.0 | 15.0 | 0.00 | 0.11 | 0.00 | 29 | 1006.6 |
| 20260503214210 | 82 | 15 | 6.0 | 15.0 | 0.00 | 0.11 | 0.00 | 30 | 1006.6 |
| 20260503214136 | 82 | 40 | 7.0 | 15.0 | 0.00 | 0.11 | 0.00 | 30 | 1006.6 |
| 20260503214055 | 82 | 46 | 8.0 | 15.0 | 0.00 | 0.11 | 0.00 | 30 | 1006.6 |
| 20260503213911 | 82 | 69 | 8.0 | 15.0 | 0.00 | 0.11 | 0.00 | 31 | 1006.6 |
| 20260503213814 | 82 | 26 | 9.0 | 15.0 | 0.00 | 0.11 | 0.00 | 30 | 1006.6 |
| 20260503213741 | 82 | 15 | 7.0 | 15.0 | 0.00 | 0.11 | 0.00 | 30 | 1006.6 |
| 20260503213645 | 82 | 27 | 5.0 | 13.0 | 0.00 | 0.11 | 0.00 | 30 | 1006.6 |
| 20260503213521 | 82 | 10 | 7.0 | 14.0 | 0.00 | 0.11 | 0.00 | 30 | 1006.7 |
| 20260503213448 | 82 | 46 | 8.0 | 14.0 | 0.00 | 0.11 | 0.00 | 31 | 1006.7 |
| 20260503213324 | 81 | 33 | 6.0 | 14.0 | 0.00 | 0.11 | 0.00 | 31 | 1006.7 |
| 20260503213231 | 81 | 46 | 5.0 | 14.0 | 0.00 | 0.11 | 0.00 | 32 | 1006.7 |
| 20260503213126 | 81 | 15 | 6.0 | 14.0 | 0.00 | 0.11 | 0.00 | 31 | 1006.8 |
| 20260503213028 | 81 | 36 | 6.0 | 14.0 | 0.00 | 0.11 | 0.00 | 32 | 1006.8 |
| 20260503212913 | 81 | 36 | 8.0 | 14.0 | 0.00 | 0.11 | 0.00 | 31 | 1006.7 |
| 20260503212826 | 81 | 66 | 9.0 | 15.0 | 0.00 | 0.11 | 0.00 | 31 | 1006.8 |
| 20260503212734 | 81 | 28 | 7.0 | 15.0 | 0.00 | 0.11 | 0.00 | 32 | 1006.8 |
| 20260503212627 | 81 | 10 | 6.0 | 15.0 | 0.00 | 0.11 | 0.00 | 31 | 1006.8 |
| 20260503212531 | 81 | 36 | 5.0 | 15.0 | 0.00 | 0.11 | 0.00 | 31 | 1006.9 |
| 20260503212435 | 81 | 338 | 7.0 | 15.0 | 0.00 | 0.11 | 0.00 | 31 | 1006.8 |
| 20260503212312 | 81 | 15 | 8.0 | 15.0 | 0.00 | 0.11 | 0.00 | 30 | 1006.8 |
| 20260503212243 | 81 | 352 | 9.0 | 15.0 | 0.00 | 0.11 | 0.00 | 30 | 1006.9 |
| 20260503212125 | 81 | 346 | 9.0 | 15.0 | 0.00 | 0.11 | 0.00 | 31 | 1006.9 |
| 20260503212041 | 81 | 357 | 8.0 | 15.0 | 0.00 | 0.11 | 0.00 | 31 | 1006.9 |
| 20260503211924 | 81 | 5 | 7.0 | 15.0 | 0.00 | 0.11 | 0.00 | 32 | 1006.9 |
| 20260503211831 | 81 | 5 | 4.0 | 12.0 | 0.00 | 0.11 | 0.00 | 32 | 1006.9 |
| 20260503211727 | 81 | 42 | 5.0 | 12.0 | 0.00 | 0.11 | 0.00 | 32 | 1006.9 |
| 20260503211633 | 81 | 66 | 7.0 | 12.0 | 0.00 | 0.11 | 0.00 | 31 | 1006.9 |
| 20260503211509 | 81 | 10 | 8.0 | 13.0 | 0.00 | 0.11 | 0.00 | 31 | 1006.9 |
| 20260503211410 | 81 | 21 | 6.0 | 13.0 | 0.00 | 0.11 | 0.00 | 32 | 1007.0 |
| 20260503211316 | 81 | 29 | 6.0 | 13.0 | 0.00 | 0.11 | 0.00 | 33 | 1007.0 |
| 20260503211213 | 80 | 5 | 6.0 | 13.0 | 0.00 | 0.11 | 0.00 | 32 | 1007.0 |
| 20260503211137 | 80 | 360 | 5.0 | 13.0 | 0.00 | 0.11 | 0.00 | 31 | 1006.9 |
| 20260503211041 | 80 | 5 | 6.0 | 13.0 | 0.00 | 0.11 | 0.00 | 31 | 1007.0 |
| 20260503210916 | 80 | 356 | 5.0 | 13.0 | 0.00 | 0.11 | 0.00 | 32 | 1006.9 |
| 20260503210813 | 81 | 29 | 7.0 | 13.0 | 0.00 | 0.11 | 0.00 | 31 | 1007.0 |
| 20260503210720 | 81 | 32 | 7.0 | 13.0 | 0.00 | 0.11 | 0.00 | 31 | 1007.0 |
| 20260503210619 | 80 | 34 | 6.0 | 13.0 | 0.00 | 0.11 | 0.00 | 32 | 1007.0 |
| 20260503210526 | 80 | 15 | 5.0 | 13.0 | 0.00 | 0.11 | 0.00 | 32 | 1007.0 |
| 20260503210443 | 80 | 46 | 5.0 | 13.0 | 0.00 | 0.11 | 0.00 | 32 | 1007.0 |
| 20260503210327 | 80 | 335 | 7.0 | 13.0 | 0.00 | 0.11 | 0.00 | 32 | 1007.0 |
| 20260503210224 | 80 | 331 | 6.0 | 13.0 | 0.00 | 0.11 | 0.00 | 32 | 1007.1 |
| 20260503210151 | 80 | 1 | 5.0 | 13.0 | 0.00 | 0.11 | 0.00 | 31 | 1007.1 |
| 20260503210055 | 80 | 354 | 5.0 | 13.0 | 0.00 | 0.11 | 0.00 | 33 | 1007.0 |
| 20260503205916 | 80 | 358 | 6.0 | 13.0 | 0.00 | 0.11 | 0.00 | 33 | 1007.1 |
| 20260503205813 | 80 | 5 | 5.0 | 13.0 | 0.00 | 0.11 | 0.00 | 32 | 1007.1 |
| 20260503205720 | 80 | 5 | 4.0 | 13.0 | 0.00 | 0.11 | 0.00 | 32 | 1007.1 |
| 20260503205614 | 80 | 25 | 5.0 | 13.0 | 0.00 | 0.11 | 0.00 | 33 | 1007.1 |
| 20260503205519 | 80 | 66 | 6.0 | 13.0 | 0.00 | 0.11 | 0.00 | 32 | 1007.1 |
| 20260503205415 | 80 | 46 | 5.0 | 13.0 | 0.00 | 0.11 | 0.00 | 33 | 1007.1 |
| 20260503205342 | 80 | 44 | 7.0 | 13.0 | 0.00 | 0.11 | 0.00 | 33 | 1007.1 |
| 20260503205220 | 80 | 15 | 7.0 | 13.0 | 0.00 | 0.11 | 0.00 | 33 | 1007.2 |
| 20260503205148 | 80 | 15 | 5.0 | 12.0 | 0.00 | 0.11 | 0.00 | 33 | 1007.2 |
| 20260503205032 | 80 | 10 | 5.0 | 12.0 | 0.00 | 0.11 | 0.00 | 33 | 1007.2 |
| 20260503204950 | 80 | 5 | 6.0 | 12.0 | 0.00 | 0.11 | 0.00 | 33 | 1007.2 |
| 20260503204833 | 80 | 25 | 6.0 | 12.0 | 0.00 | 0.11 | 0.00 | 32 | 1007.2 |
| 20260503204720 | 80 | 10 | 6.0 | 13.0 | 0.00 | 0.11 | 0.00 | 33 | 1007.3 |
| 20260503204616 | 80 | 348 | 6.0 | 13.0 | 0.00 | 0.11 | 0.00 | 33 | 1007.2 |
| 20260503204541 | 80 | 19 | 6.0 | 13.0 | 0.00 | 0.11 | 0.00 | 32 | 1007.2 |
| 20260503204446 | 80 | 341 | 4.0 | 13.0 | 0.00 | 0.11 | 0.00 | 32 | 1007.2 |
| 20260503204322 | 80 | 29 | 4.0 | 13.0 | 0.00 | 0.11 | 0.00 | 32 | 1007.2 |
| 20260503204222 | 80 | 358 | 5.0 | 13.0 | 0.00 | 0.11 | 0.00 | 31 | 1007.3 |
| 20260503204129 | 80 | 334 | 6.0 | 13.0 | 0.00 | 0.11 | 0.00 | 32 | 1007.3 |
| 20260503204024 | 80 | 22 | 8.0 | 13.0 | 0.00 | 0.11 | 0.00 | 32 | 1007.4 |
| 20260503203930 | 80 | 10 | 8.0 | 13.0 | 0.00 | 0.11 | 0.00 | 32 | 1007.4 |
| 20260503203827 | 80 | 22 | 6.0 | 11.0 | 0.00 | 0.11 | 0.00 | 32 | 1007.4 |
| 20260503203727 | 80 | 15 | 5.0 | 10.0 | 0.00 | 0.11 | 0.00 | 32 | 1007.4 |
| 20260503203615 | 80 | 65 | 5.0 | 10.0 | 0.00 | 0.11 | 0.00 | 32 | 1007.4 |
| 20260503203513 | 80 | 15 | 5.0 | 10.0 | 0.00 | 0.11 | 0.00 | 33 | 1007.4 |
| 20260503203411 | 80 | 5 | 4.0 | 10.0 | 0.00 | 0.11 | 0.00 | 31 | 1007.4 |
| 20260503203336 | 80 | 46 | 5.0 | 10.0 | 0.00 | 0.11 | 0.00 | 33 | 1007.4 |
| 20260503203212 | 80 | 69 | 4.0 | 10.0 | 0.00 | 0.11 | 0.00 | 33 | 1007.4 |
| 20260503203136 | 79 | 56 | 5.0 | 10.0 | 0.00 | 0.11 | 0.00 | 33 | 1007.4 |
| 20260503203022 | 79 | 10 | 5.0 | 12.0 | 0.00 | 0.11 | 0.00 | 32 | 1007.4 |
| 20260503202924 | 79 | 42 | 4.0 | 12.0 | 0.00 | 0.11 | 0.00 | 33 | 1007.4 |
| 20260503202809 | 79 | 39 | 4.0 | 12.0 | 0.00 | 0.11 | 0.00 | 33 | 1007.4 |
| 20260503202727 | 79 | 44 | 5.0 | 12.0 | 0.00 | 0.11 | 0.00 | 33 | 1007.4 |
| 20260503202634 | 79 | 29 | 4.0 | 12.0 | 0.00 | 0.11 | 0.00 | 34 | 1007.5 |
| 20260503202509 | 79 | 19 | 5.0 | 12.0 | 0.00 | 0.11 | 0.00 | 34 | 1007.5 |
| 20260503202415 | 79 | 24 | 6.0 | 12.0 | 0.00 | 0.11 | 0.00 | 34 | 1007.5 |
| 20260503202333 | 79 | 70 | 7.0 | 12.0 | 0.00 | 0.11 | 0.00 | 33 | 1007.5 |
| 20260503202220 | 79 | 15 | 7.0 | 12.0 | 0.00 | 0.11 | 0.00 | 33 | 1007.5 |
| 20260503202120 | 79 | 359 | 7.0 | 12.0 | 0.00 | 0.11 | 0.00 | 33 | 1007.5 |
| 20260503202027 | 79 | 45 | 7.0 | 12.0 | 0.00 | 0.11 | 0.00 | 33 | 1007.5 |
| 20260503201923 | 79 | 356 | 6.0 | 12.0 | 0.00 | 0.11 | 0.00 | 33 | 1007.5 |
| 20260503201820 | 79 | 40 | 5.0 | 12.0 | 0.00 | 0.11 | 0.00 | 34 | 1007.5 |
| 20260503201728 | 79 | 69 | 4.0 | 12.0 | 0.00 | 0.11 | 0.00 | 34 | 1007.5 |
| 20260503201624 | 78 | 75 | 4.0 | 12.0 | 0.00 | 0.11 | 0.00 | 33 | 1007.5 |
| 20260503201534 | 78 | 15 | 4.0 | 12.0 | 0.00 | 0.11 | 0.00 | 33 | 1007.5 |
| 20260503201409 | 78 | 1 | 5.0 | 12.0 | 0.00 | 0.11 | 0.00 | 34 | 1007.5 |
| 20260503201315 | 78 | 29 | 6.0 | 12.0 | 0.00 | 0.11 | 0.00 | 35 | 1007.6 |
| 20260503201232 | 78 | 15 | 7.0 | 12.0 | 0.00 | 0.11 | 0.00 | 35 | 1007.6 |
| 20260503201115 | 78 | 81 | 5.0 | 12.0 | 0.00 | 0.11 | 0.00 | 34 | 1007.7 |
| 20260503201011 | 78 | 56 | 4.0 | 12.0 | 0.00 | 0.11 | 0.00 | 36 | 1007.7 |
| 20260503200908 | 78 | 58 | 6.0 | 12.0 | 0.00 | 0.11 | 0.00 | 35 | 1007.6 |
| 20260503200819 | 78 | 65 | 6.0 | 12.0 | 0.00 | 0.11 | 0.00 | 35 | 1007.7 |
| 20260503200719 | 77 | 32 | 6.0 | 12.0 | 0.00 | 0.11 | 0.00 | 35 | 1007.7 |
| 20260503200624 | 77 | 20 | 6.0 | 12.0 | 0.00 | 0.11 | 0.00 | 35 | 1007.8 |
| 20260503200520 | 77 | 32 | 6.0 | 12.0 | 0.00 | 0.11 | 0.00 | 35 | 1007.8 |
| 20260503200427 | 77 | 353 | 5.0 | 12.0 | 0.00 | 0.11 | 0.00 | 35 | 1007.8 |
| 20260503200323 | 77 | 21 | 5.0 | 12.0 | 0.00 | 0.11 | 0.00 | 35 | 1007.8 |
| 20260503200219 | 77 | 359 | 5.0 | 12.0 | 0.00 | 0.11 | 0.00 | 35 | 1007.8 |
| 20260503200125 | 77 | 10 | 5.0 | 11.0 | 0.00 | 0.11 | 0.00 | 34 | 1007.8 |
| 20260503200050 | 77 | 348 | 5.0 | 11.0 | 0.00 | 0.11 | 0.00 | 34 | 1007.8 |
| 20260503195926 | 77 | 343 | 6.0 | 11.0 | 0.00 | 0.11 | 0.00 | 36 | 1007.8 |
| 20260503195823 | 77 | 5 | 7.0 | 11.0 | 0.00 | 0.11 | 0.00 | 36 | 1007.9 |
| 20260503195712 | 77 | 15 | 5.0 | 11.0 | 0.00 | 0.11 | 0.00 | 36 | 1007.9 |
| 20260503195626 | 77 | 15 | 4.0 | 11.0 | 0.00 | 0.11 | 0.00 | 37 | 1007.9 |
| 20260503195532 | 77 | 52 | 5.0 | 11.0 | 0.00 | 0.11 | 0.00 | 37 | 1007.9 |
| 20260503195414 | 77 | 40 | 6.0 | 11.0 | 0.00 | 0.11 | 0.00 | 36 | 1007.8 |
| 20260503195310 | 77 | 51 | 6.0 | 11.0 | 0.00 | 0.11 | 0.00 | 36 | 1007.9 |
| 20260503195219 | 77 | 67 | 5.0 | 11.0 | 0.00 | 0.11 | 0.00 | 37 | 1007.9 |
| 20260503195114 | 76 | 22 | 4.0 | 9.0 | 0.00 | 0.11 | 0.00 | 36 | 1007.9 |
| 20260503195041 | 76 | 46 | 5.0 | 9.0 | 0.00 | 0.11 | 0.00 | 35 | 1007.9 |
| 20260503194924 | 76 | 340 | 6.0 | 10.0 | 0.00 | 0.11 | 0.00 | 37 | 1008.0 |
| 20260503194822 | 76 | 357 | 5.0 | 10.0 | 0.00 | 0.11 | 0.00 | 37 | 1008.0 |
| 20260503194725 | 76 | 20 | 5.0 | 10.0 | 0.00 | 0.11 | 0.00 | 38 | 1008.0 |
| 20260503194611 | 76 | 10 | 4.0 | 10.0 | 0.00 | 0.11 | 0.00 | 36 | 1007.9 |
| 20260503194526 | 76 | 32 | 4.0 | 10.0 | 0.00 | 0.11 | 0.00 | 36 | 1008.0 |
| 20260503194433 | 76 | 313 | 6.0 | 10.0 | 0.00 | 0.11 | 0.00 | 35 | 1008.1 |
| 20260503194309 | 76 | 319 | 7.0 | 10.0 | 0.00 | 0.11 | 0.00 | 36 | 1008.1 |
| 20260503194236 | 76 | 326 | 7.0 | 10.0 | 0.00 | 0.11 | 0.00 | 36 | 1008.1 |
| 20260503194116 | 76 | 317 | 6.0 | 11.0 | 0.00 | 0.11 | 0.00 | 37 | 1008.1 |
| 20260503194043 | 76 | 321 | 6.0 | 11.0 | 0.00 | 0.11 | 0.00 | 36 | 1008.2 |
| 20260503193917 | 76 | 357 | 6.0 | 13.0 | 0.00 | 0.11 | 0.00 | 37 | 1008.1 |
| 20260503193823 | 76 | 331 | 5.0 | 13.0 | 0.00 | 0.11 | 0.00 | 37 | 1008.1 |
| 20260503193722 | 76 | 360 | 4.0 | 13.0 | 0.00 | 0.11 | 0.00 | 38 | 1008.1 |
| 20260503193625 | 76 | 25 | 6.0 | 13.0 | 0.00 | 0.11 | 0.00 | 38 | 1008.1 |
| 20260503193523 | 76 | 5 | 6.0 | 13.0 | 0.00 | 0.11 | 0.00 | 38 | 1008.2 |
| 20260503193419 | 76 | 360 | 5.0 | 13.0 | 0.00 | 0.11 | 0.00 | 37 | 1008.1 |
| 20260503193326 | 76 | 15 | 6.0 | 13.0 | 0.00 | 0.11 | 0.00 | 38 | 1008.2 |
| 20260503193223 | 76 | 348 | 7.0 | 13.0 | 0.00 | 0.11 | 0.00 | 38 | 1008.2 |
| 20260503193132 | 76 | 358 | 6.0 | 13.0 | 0.00 | 0.11 | 0.00 | 39 | 1008.2 |
| 20260503193028 | 76 | 349 | 6.0 | 11.0 | 0.00 | 0.11 | 0.00 | 39 | 1008.2 |
| 20260503192933 | 76 | 332 | 7.0 | 11.0 | 0.00 | 0.11 | 0.00 | 39 | 1008.2 |
| 20260503192830 | 76 | 330 | 4.0 | 10.0 | 0.00 | 0.11 | 0.00 | 41 | 1008.3 |
| 20260503192727 | 76 | 358 | 2.0 | 10.0 | 0.00 | 0.11 | 0.00 | 40 | 1008.3 |
| 20260503192634 | 75 | 41 | 2.0 | 10.0 | 0.00 | 0.11 | 0.00 | 39 | 1008.3 |
| 20260503192510 | 75 | 41 | 4.0 | 10.0 | 0.00 | 0.11 | 0.00 | 39 | 1008.3 |
| 20260503192434 | 75 | 36 | 4.0 | 10.0 | 0.00 | 0.11 | 0.00 | 39 | 1008.3 |
| 20260503192310 | 75 | 332 | 4.0 | 10.0 | 0.00 | 0.11 | 0.00 | 39 | 1008.4 |
| 20260503192238 | 75 | 331 | 5.0 | 10.0 | 0.00 | 0.11 | 0.00 | 39 | 1008.4 |
| 20260503192113 | 75 | 359 | 5.0 | 10.0 | 0.00 | 0.11 | 0.00 | 40 | 1008.4 |
| 20260503192014 | 75 | 5 | 4.0 | 10.0 | 0.00 | 0.11 | 0.00 | 40 | 1008.4 |
| 20260503191920 | 75 | 87 | 4.0 | 10.0 | 0.00 | 0.11 | 0.00 | 41 | 1008.4 |
| 20260503191817 | 75 | 51 | 3.0 | 10.0 | 0.00 | 0.11 | 0.00 | 40 | 1008.4 |
| 20260503191715 | 75 | 50 | 4.0 | 10.0 | 0.00 | 0.11 | 0.00 | 41 | 1008.4 |
| 20260503191620 | 75 | 41 | 5.0 | 10.0 | 0.00 | 0.11 | 0.00 | 39 | 1008.4 |
| 20260503191517 | 75 | 15 | 6.0 | 10.0 | 0.00 | 0.11 | 0.00 | 40 | 1008.5 |
| 20260503191425 | 75 | 64 | 5.0 | 10.0 | 0.00 | 0.11 | 0.00 | 39 | 1008.4 |
| 20260503191352 | 75 | 20 | 4.0 | 10.0 | 0.00 | 0.11 | 0.00 | 39 | 1008.4 |
| 20260503191228 | 75 | 20 | 4.0 | 10.0 | 0.00 | 0.11 | 0.00 | 39 | 1008.4 |
| 20260503191122 | 75 | 22 | 5.0 | 10.0 | 0.00 | 0.11 | 0.00 | 43 | 1008.5 |
| 20260503191028 | 74 | 26 | 4.0 | 10.0 | 0.00 | 0.11 | 0.00 | 41 | 1008.5 |
| 20260503190924 | 74 | 56 | 6.0 | 10.0 | 0.00 | 0.11 | 0.00 | 40 | 1008.5 |
| 20260503190831 | 74 | 24 | 6.0 | 10.0 | 0.00 | 0.11 | 0.00 | 40 | 1008.5 |
| 20260503190734 | 74 | 22 | 5.0 | 10.0 | 0.00 | 0.11 | 0.00 | 40 | 1008.5 |
| 20260503190618 | 74 | 343 | 5.0 | 12.0 | 0.00 | 0.11 | 0.00 | 41 | 1008.5 |
| 20260503190412 | 74 | 351 | 6.0 | 12.0 | 0.00 | 0.11 | 0.00 | 41 | 1008.5 |
| 20260503190316 | 74 | 15 | 5.0 | 12.0 | 0.00 | 0.11 | 0.00 | 41 | 1008.5 |
| 20260503190223 | 74 | 29 | 4.0 | 12.0 | 0.00 | 0.11 | 0.00 | 41 | 1008.6 |
| 20260503190116 | 74 | 360 | 5.0 | 12.0 | 0.00 | 0.11 | 0.00 | 42 | 1008.6 |
| 20260503190018 | 74 | 42 | 6.0 | 12.0 | 0.00 | 0.11 | 0.00 | 41 | 1008.6 |
| 20260503185925 | 74 | 35 | 7.0 | 12.0 | 0.00 | 0.11 | 0.00 | 42 | 1008.6 |
| 20260503185821 | 74 | 353 | 6.0 | 12.0 | 0.00 | 0.11 | 0.00 | 42 | 1008.6 |
| 20260503185749 | 74 | 319 | 3.0 | 10.0 | 0.00 | 0.11 | 0.00 | 42 | 1008.6 |
| 20260503185623 | 74 | 345 | 3.0 | 10.0 | 0.00 | 0.11 | 0.00 | 43 | 1008.6 |
| 20260503185528 | 74 | 354 | 4.0 | 10.0 | 0.00 | 0.11 | 0.00 | 42 | 1008.6 |
| 20260503185433 | 74 | 358 | 5.0 | 10.0 | 0.00 | 0.11 | 0.00 | 42 | 1008.6 |
| 20260503185326 | 74 | 356 | 6.0 | 10.0 | 0.00 | 0.11 | 0.00 | 43 | 1008.7 |
| 20260503185237 | 73 | 360 | 5.0 | 10.0 | 0.00 | 0.11 | 0.00 | 42 | 1008.7 |
| 20260503185119 | 73 | 329 | 5.0 | 10.0 | 0.00 | 0.11 | 0.00 | 41 | 1008.7 |
| 20260503185015 | 73 | 338 | 6.0 | 10.0 | 0.00 | 0.11 | 0.00 | 41 | 1008.8 |
| 20260503184913 | 73 | 342 | 6.0 | 10.0 | 0.00 | 0.11 | 0.00 | 42 | 1008.8 |
| 20260503184820 | 73 | 346 | 5.0 | 10.0 | 0.00 | 0.11 | 0.00 | 42 | 1008.8 |
| 20260503184717 | 73 | 5 | 2.0 | 9.0 | 0.00 | 0.11 | 0.00 | 40 | 1008.8 |
| 20260503184622 | 73 | 15 | 2.0 | 10.0 | 0.00 | 0.11 | 0.00 | 42 | 1008.8 |
| 20260503184522 | 73 | 10 | 3.0 | 10.0 | 0.00 | 0.11 | 0.00 | 42 | 1008.8 |
| 20260503184418 | 73 | 325 | 3.0 | 10.0 | 0.00 | 0.11 | 0.00 | 41 | 1008.8 |